Wetterdaten: Samstag, 26.04.2014
Datum Zeit Temp. Aussen +5cm Feuchte Auss Luftdruck Regen Sonnenschein Regendauer UV Solar Windben
26.04.2014 00:00 14,9 C 12,2 C 81 % 1011,4 hPa 0,0 l/m 0 min 0 min 0,0 UV-I 0 W/m 2,6 km/h (1 Bft)
26.04.2014 00:02 14,9 C 12,2 C 82 % 1011,4 hPa 0,0 l/m 0 min 0 min 0,0 UV-I 0 W/m 0,0 km/h (0 Bft)
26.04.2014 00:06 14,8 C 12,2 C 82 % 1011,5 hPa 0,0 l/m 0 min 0 min 0,0 UV-I 0 W/m 10,3 km/h (2 Bft)
26.04.2014 00:08 14,8 C 12,2 C 82 % 1011,5 hPa 0,0 l/m 0 min 0 min 0,0 UV-I 0 W/m 2,6 km/h (1 Bft)
26.04.2014 00:10 14,8 C 12,2 C 82 % 1011,6 hPa 0,0 l/m 0 min 0 min 0,0 UV-I 0 W/m 0,0 km/h (0 Bft)
26.04.2014 00:12 14,7 C 12,2 C 82 % 1011,6 hPa 0,0 l/m 0 min 0 min 0,0 UV-I 0 W/m 0,0 km/h (0 Bft)
26.04.2014 00:14 14,7 C 12,2 C 82 % 1011,8 hPa 0,0 l/m 0 min 0 min 0,0 UV-I 0 W/m 0,0 km/h (0 Bft)
26.04.2014 00:16 14,7 C 12,2 C 82 % 1011,7 hPa 0,0 l/m 0 min 0 min 0,0 UV-I 0 W/m 2,6 km/h (1 Bft)
26.04.2014 00:18 14,6 C 12,2 C 82 % 1011,7 hPa 0,0 l/m 0 min 0 min 0,0 UV-I 0 W/m 0,0 km/h (0 Bft)
26.04.2014 00:20 14,6 C 12,2 C 82 % 1011,7 hPa 0,0 l/m 0 min 0 min 0,0 UV-I 0 W/m 0,0 km/h (0 Bft)
26.04.2014 00:22 14,5 C 12,2 C 82 % 1011,8 hPa 0,0 l/m 0 min 0 min 0,0 UV-I 0 W/m 10,3 km/h (2 Bft)
26.04.2014 00:24 14,4 C 12,2 C 82 % 1011,9 hPa 0,0 l/m 0 min 0 min 0,0 UV-I 0 W/m 7,7 km/h (2 Bft)
26.04.2014 00:26 14,4 C 12,2 C 82 % 1011,8 hPa 0,0 l/m 0 min 0 min 0,0 UV-I 0 W/m 10,3 km/h (2 Bft)
26.04.2014 00:28 14,4 C 12,2 C 82 % 1011,9 hPa 0,0 l/m 0 min 0 min 0,0 UV-I 0 W/m 10,3 km/h (2 Bft)
26.04.2014 00:30 14,4 C 12,2 C 82 % 1012,0 hPa 0,0 l/m 0 min 0 min 0,0 UV-I 0 W/m 0,0 km/h (0 Bft)
26.04.2014 00:32 14,4 C 12,2 C 82 % 1012,1 hPa 0,0 l/m 0 min 0 min 0,0 UV-I 0 W/m 0,0 km/h (0 Bft)
26.04.2014 00:34 14,3 C 11,7 C 82 % 1012,1 hPa 0,0 l/m 0 min 0 min 0,0 UV-I 0 W/m 0,0 km/h (0 Bft)
26.04.2014 00:36 14,2 C 11,7 C 82 % 1012,1 hPa 0,0 l/m 0 min 0 min 0,0 UV-I 0 W/m 2,6 km/h (1 Bft)
26.04.2014 00:38 14,2 C 11,7 C 82 % 1012,2 hPa 0,0 l/m 0 min 0 min 0,0 UV-I 0 W/m 2,6 km/h (1 Bft)
26.04.2014 00:40 14,2 C 11,7 C 82 % 1012,1 hPa 0,0 l/m 0 min 0 min 0,0 UV-I 0 W/m 0,0 km/h (0 Bft)
26.04.2014 00:42 14,2 C 11,7 C 82 % 1012,2 hPa 0,0 l/m 0 min 0 min 0,0 UV-I 0 W/m 0,0 km/h (0 Bft)
26.04.2014 00:44 14,2 C 11,7 C 82 % 1012,3 hPa 0,0 l/m 0 min 0 min 0,0 UV-I 0 W/m 2,6 km/h (1 Bft)
26.04.2014 00:46 14,2 C 11,7 C 82 % 1012,3 hPa 0,0 l/m 0 min 0 min 0,0 UV-I 0 W/m 0,0 km/h (0 Bft)
26.04.2014 00:48 14,2 C 11,7 C 82 % 1012,2 hPa 0,0 l/m 0 min 0 min 0,0 UV-I 0 W/m 2,6 km/h (1 Bft)
26.04.2014 00:50 14,2 C 11,7 C 82 % 1012,3 hPa 0,0 l/m 0 min 0 min 0,0 UV-I 0 W/m 0,0 km/h (0 Bft)
26.04.2014 00:52 14,2 C 11,7 C 82 % 1012,3 hPa 0,0 l/m 0 min 0 min 0,0 UV-I 0 W/m 0,0 km/h (0 Bft)
26.04.2014 00:54 14,2 C 11,7 C 82 % 1012,3 hPa 0,0 l/m 0 min 0 min 0,0 UV-I 0 W/m 0,0 km/h (0 Bft)
26.04.2014 00:56 14,1 C 11,7 C 82 % 1012,3 hPa 0,0 l/m 0 min 0 min 0,0 UV-I 0 W/m 2,6 km/h (1 Bft)
26.04.2014 00:58 14,1 C 11,7 C 83 % 1012,4 hPa 0,0 l/m 0 min 0 min 0,0 UV-I 0 W/m 0,0 km/h (0 Bft)
26.04.2014 01:00 14,0 C 11,7 C 83 % 1012,4 hPa 0,0 l/m 0 min 0 min 0,0 UV-I 0 W/m 0,0 km/h (0 Bft)
26.04.2014 01:02 14,0 C 11,7 C 83 % 1012,5 hPa 0,0 l/m 0 min 0 min 0,0 UV-I 0 W/m 0,0 km/h (0 Bft)
26.04.2014 01:06 13,9 C 11,7 C 83 % 1012,4 hPa 0,0 l/m 0 min 0 min 0,0 UV-I 0 W/m 0,0 km/h (0 Bft)
26.04.2014 01:08 13,9 C 11,7 C 83 % 1012,5 hPa 0,0 l/m 0 min 0 min 0,0 UV-I 0 W/m 0,0 km/h (0 Bft)
26.04.2014 01:10 13,9 C 11,7 C 83 % 1012,5 hPa 0,0 l/m 0 min 0 min 0,0 UV-I 0 W/m 0,0 km/h (0 Bft)
26.04.2014 01:12 13,9 C 11,7 C 83 % 1012,6 hPa 0,0 l/m 0 min 0 min 0,0 UV-I 0 W/m 0,0 km/h (0 Bft)
26.04.2014 01:14 13,9 C 11,7 C 83 % 1012,6 hPa 0,0 l/m 0 min 0 min 0,0 UV-I 0 W/m 0,0 km/h (0 Bft)
26.04.2014 01:16 13,9 C 11,7 C 83 % 1012,6 hPa 0,0 l/m 0 min 0 min 0,0 UV-I 0 W/m 0,0 km/h (0 Bft)
26.04.2014 01:18 13,8 C 11,7 C 83 % 1012,6 hPa 0,0 l/m 0 min 0 min 0,0 UV-I 0 W/m 0,0 km/h (0 Bft)
26.04.2014 01:20 13,8 C 11,7 C 84 % 1012,7 hPa 0,0 l/m 0 min 0 min 0,0 UV-I 0 W/m 0,0 km/h (0 Bft)
26.04.2014 01:22 13,7 C 11,7 C 84 % 1012,7 hPa 0,0 l/m 0 min 0 min 0,0 UV-I 0 W/m 0,0 km/h (0 Bft)
26.04.2014 01:24 13,7 C 11,7 C 84 % 1012,7 hPa 0,0 l/m 0 min 0 min 0,0 UV-I 0 W/m 0,0 km/h (0 Bft)
26.04.2014 01:26 13,7 C 11,7 C 84 % 1012,7 hPa 0,0 l/m 0 min 0 min 0,0 UV-I 0 W/m 0,0 km/h (0 Bft)
26.04.2014 01:28 13,7 C 11,7 C 85 % 1012,7 hPa 0,0 l/m 0 min 0 min 0,0 UV-I 0 W/m 0,0 km/h (0 Bft)
26.04.2014 01:30 13,7 C 11,7 C 85 % 1012,7 hPa 0,0 l/m 0 min 0 min 0,0 UV-I 0 W/m 0,0 km/h (0 Bft)
26.04.2014 01:32 13,7 C 11,7 C 85 % 1012,7 hPa 0,0 l/m 0 min 0 min 0,0 UV-I 0 W/m 0,0 km/h (0 Bft)
26.04.2014 01:34 13,7 C 11,7 C 85 % 1012,7 hPa 0,0 l/m 0 min 0 min 0,0 UV-I 0 W/m 0,0 km/h (0 Bft)
26.04.2014 01:36 13,7 C 11,7 C 85 % 1012,7 hPa 0,0 l/m 0 min 0 min 0,0 UV-I 0 W/m 0,0 km/h (0 Bft)
26.04.2014 01:38 13,7 C 11,7 C 85 % 1012,7 hPa 0,0 l/m 0 min 0 min 0,0 UV-I 0 W/m 0,0 km/h (0 Bft)
26.04.2014 01:40 13,7 C 11,7 C 85 % 1012,7 hPa 0,0 l/m 0 min 0 min 0,0 UV-I 0 W/m 0,0 km/h (0 Bft)
26.04.2014 01:42 13,8 C 11,7 C 85 % 1012,7 hPa 0,0 l/m 0 min 0 min 0,0 UV-I 0 W/m 2,6 km/h (1 Bft)
26.04.2014 01:44 13,8 C 11,7 C 85 % 1012,8 hPa 0,0 l/m 0 min 0 min 0,0 UV-I 0 W/m 0,0 km/h (0 Bft)
26.04.2014 01:46 13,8 C 11,7 C 85 % 1012,7 hPa 0,0 l/m 0 min 0 min 0,0 UV-I 0 W/m 5,1 km/h (1 Bft)
26.04.2014 01:48 13,8 C 11,7 C 85 % 1012,7 hPa 0,0 l/m 0 min 0 min 0,0 UV-I 0 W/m 0,0 km/h (0 Bft)
26.04.2014 01:50 13,8 C 12,2 C 85 % 1012,7 hPa 0,0 l/m 0 min 0 min 0,0 UV-I 0 W/m 0,0 km/h (0 Bft)
26.04.2014 01:52 13,9 C 12,2 C 84 % 1012,7 hPa 0,0 l/m 0 min 0 min 0,0 UV-I 0 W/m 0,0 km/h (0 Bft)
26.04.2014 01:54 13,9 C 12,2 C 84 % 1012,7 hPa 0,0 l/m 0 min 0 min 0,0 UV-I 0 W/m 0,0 km/h (0 Bft)
26.04.2014 01:56 13,9 C 12,2 C 84 % 1012,7 hPa 0,0 l/m 0 min 0 min 0,0 UV-I 0 W/m 0,0 km/h (0 Bft)
26.04.2014 01:58 13,9 C 12,2 C 84 % 1012,7 hPa 0,0 l/m 0 min 0 min 0,0 UV-I 0 W/m 0,0 km/h (0 Bft)
26.04.2014 02:00 13,9 C 12,2 C 84 % 1012,7 hPa 0,0 l/m 0 min 0 min 0,0 UV-I 0 W/m 0,0 km/h (0 Bft)
26.04.2014 02:02 13,9 C 12,2 C 84 % 1012,7 hPa 0,0 l/m 0 min 0 min 0,0 UV-I 0 W/m 5,1 km/h (1 Bft)
26.04.2014 02:06 13,9 C 12,2 C 84 % 1012,7 hPa 0,0 l/m 0 min 0 min 0,0 UV-I 0 W/m 2,6 km/h (1 Bft)
26.04.2014 02:08 13,9 C 12,2 C 84 % 1012,7 hPa 0,0 l/m 0 min 0 min 0,0 UV-I 0 W/m 0,0 km/h (0 Bft)
26.04.2014 02:10 13,9 C 12,2 C 84 % 1012,7 hPa 0,0 l/m 0 min 0 min 0,0 UV-I 0 W/m 0,0 km/h (0 Bft)
26.04.2014 02:12 13,8 C 12,2 C 84 % 1012,7 hPa 0,0 l/m 0 min 0 min 0,0 UV-I 0 W/m 0,0 km/h (0 Bft)
26.04.2014 02:14 13,8 C 12,2 C 84 % 1012,7 hPa 0,0 l/m 0 min 0 min 0,0 UV-I 0 W/m 0,0 km/h (0 Bft)
26.04.2014 02:16 13,8 C 11,7 C 84 % 1012,7 hPa 0,0 l/m 0 min 0 min 0,0 UV-I 0 W/m 0,0 km/h (0 Bft)
26.04.2014 02:18 13,8 C 11,7 C 84 % 1012,7 hPa 0,0 l/m 0 min 0 min 0,0 UV-I 0 W/m 0,0 km/h (0 Bft)
26.04.2014 02:20 13,8 C 11,7 C 84 % 1012,7 hPa 0,0 l/m 0 min 0 min 0,0 UV-I 0 W/m 0,0 km/h (0 Bft)
26.04.2014 02:22 13,8 C 12,2 C 84 % 1012,7 hPa 0,0 l/m 0 min 0 min 0,0 UV-I 0 W/m 0,0 km/h (0 Bft)
26.04.2014 02:24 13,7 C 12,2 C 84 % 1012,7 hPa 0,0 l/m 0 min 0 min 0,0 UV-I 0 W/m 0,0 km/h (0 Bft)
26.04.2014 02:26 13,7 C 12,2 C 85 % 1012,6 hPa 0,0 l/m 0 min 0 min 0,0 UV-I 0 W/m 0,0 km/h (0 Bft)
26.04.2014 02:28 13,7 C 12,2 C 85 % 1012,6 hPa 0,0 l/m 0 min 0 min 0,0 UV-I 0 W/m 0,0 km/h (0 Bft)
26.04.2014 02:30 13,7 C 12,2 C 85 % 1012,4 hPa 0,0 l/m 0 min 0 min 0,0 UV-I 0 W/m 0,0 km/h (0 Bft)
26.04.2014 02:32 13,7 C 12,2 C 85 % 1012,4 hPa 0,0 l/m 0 min 0 min 0,0 UV-I 0 W/m 0,0 km/h (0 Bft)
26.04.2014 02:34 13,7 C 12,2 C 85 % 1012,3 hPa 0,0 l/m 0 min 0 min 0,0 UV-I 0 W/m 0,0 km/h (0 Bft)
26.04.2014 02:36 13,6 C 12,2 C 86 % 1012,3 hPa 0,0 l/m 0 min 0 min 0,0 UV-I 0 W/m 0,0 km/h (0 Bft)
26.04.2014 02:38 13,6 C 12,2 C 86 % 1012,2 hPa 0,0 l/m 0 min 0 min 0,0 UV-I 0 W/m 0,0 km/h (0 Bft)
26.04.2014 02:40 13,6 C 11,7 C 86 % 1012,2 hPa 0,0 l/m 0 min 0 min 0,0 UV-I 0 W/m 2,6 km/h (1 Bft)
26.04.2014 02:42 13,6 C 11,7 C 86 % 1012,2 hPa 0,0 l/m 0 min 0 min 0,0 UV-I 0 W/m 2,6 km/h (1 Bft)
26.04.2014 02:44 13,5 C 11,7 C 86 % 1012,2 hPa 0,0 l/m 0 min 0 min 0,0 UV-I 0 W/m 0,0 km/h (0 Bft)
26.04.2014 02:46 13,5 C 11,7 C 86 % 1012,2 hPa 0,0 l/m 0 min 0 min 0,0 UV-I 0 W/m 0,0 km/h (0 Bft)
26.04.2014 02:48 13,4 C 11,7 C 86 % 1012,3 hPa 0,0 l/m 0 min 0 min 0,0 UV-I 0 W/m 0,0 km/h (0 Bft)
26.04.2014 02:50 13,4 C 11,7 C 86 % 1012,3 hPa 0,0 l/m 0 min 0 min 0,0 UV-I 0 W/m 0,0 km/h (0 Bft)
26.04.2014 02:52 13,3 C 11,7 C 86 % 1012,3 hPa 0,0 l/m 0 min 0 min 0,0 UV-I 0 W/m 0,0 km/h (0 Bft)
26.04.2014 02:54 13,3 C 11,7 C 86 % 1012,3 hPa 0,0 l/m 0 min 0 min 0,0 UV-I 0 W/m 0,0 km/h (0 Bft)
26.04.2014 02:56 13,2 C 11,7 C 86 % 1012,3 hPa 0,0 l/m 0 min 0 min 0,0 UV-I 0 W/m 0,0 km/h (0 Bft)
26.04.2014 02:58 13,2 C 11,7 C 86 % 1012,3 hPa 0,0 l/m 0 min 0 min 0,0 UV-I 0 W/m 0,0 km/h (0 Bft)
26.04.2014 03:00 13,2 C 11,7 C 87 % 1012,2 hPa 0,0 l/m 0 min 0 min 0,0 UV-I 0 W/m 0,0 km/h (0 Bft)
26.04.2014 03:02 13,1 C 11,7 C 87 % 1012,2 hPa 0,0 l/m 0 min 0 min 0,0 UV-I 0 W/m 0,0 km/h (0 Bft)
26.04.2014 03:06 13,1 C 11,7 C 87 % 1012,2 hPa 0,0 l/m 0 min 0 min 0,0 UV-I 0 W/m 2,6 km/h (1 Bft)
26.04.2014 03:08 13,0 C 11,7 C 87 % 1012,2 hPa 0,0 l/m 0 min 0 min 0,0 UV-I 0 W/m 0,0 km/h (0 Bft)
26.04.2014 03:10 12,9 C 11,1 C 88 % 1012,2 hPa 0,0 l/m 0 min 0 min 0,0 UV-I 0 W/m 0,0 km/h (0 Bft)
26.04.2014 03:12 12,9 C 11,1 C 88 % 1012,1 hPa 0,0 l/m 0 min 0 min 0,0 UV-I 0 W/m 2,6 km/h (1 Bft)
26.04.2014 03:14 12,9 C 11,1 C 88 % 1012,2 hPa 0,0 l/m 0 min 0 min 0,0 UV-I 0 W/m 0,0 km/h (0 Bft)
26.04.2014 03:16 12,8 C 11,1 C 88 % 1012,2 hPa 0,0 l/m 0 min 0 min 0,0 UV-I 0 W/m 0,0 km/h (0 Bft)
26.04.2014 03:18 12,8 C 11,1 C 88 % 1012,1 hPa 0,0 l/m 0 min 0 min 0,0 UV-I 0 W/m 0,0 km/h (0 Bft)
26.04.2014 03:20 12,7 C 11,1 C 88 % 1012,2 hPa 0,0 l/m 0 min 0 min 0,0 UV-I 0 W/m 0,0 km/h (0 Bft)
26.04.2014 03:22 12,7 C 11,1 C 88 % 1012,1 hPa 0,0 l/m 0 min 0 min 0,0 UV-I 0 W/m 0,0 km/h (0 Bft)
26.04.2014 03:24 12,6 C 11,1 C 88 % 1012,2 hPa 0,0 l/m 0 min 0 min 0,0 UV-I 0 W/m 0,0 km/h (0 Bft)
26.04.2014 03:26 12,6 C 11,1 C 88 % 1012,2 hPa 0,0 l/m 0 min 0 min 0,0 UV-I 0 W/m 0,0 km/h (0 Bft)
26.04.2014 03:28 12,6 C 11,1 C 89 % 1012,2 hPa 0,0 l/m 0 min 0 min 0,0 UV-I 0 W/m 0,0 km/h (0 Bft)
26.04.2014 03:30 12,5 C 11,1 C 89 % 1012,1 hPa 0,0 l/m 0 min 0 min 0,0 UV-I 0 W/m 0,0 km/h (0 Bft)
26.04.2014 03:32 12,5 C 11,1 C 89 % 1012,2 hPa 0,0 l/m 0 min 0 min 0,0 UV-I 0 W/m 5,1 km/h (1 Bft)
26.04.2014 03:34 12,5 C 11,1 C 89 % 1012,2 hPa 0,0 l/m 0 min 0 min 0,0 UV-I 0 W/m 5,1 km/h (1 Bft)
26.04.2014 03:36 12,4 C 11,1 C 89 % 1012,2 hPa 0,0 l/m 0 min 0 min 0,0 UV-I 0 W/m 0,0 km/h (0 Bft)
26.04.2014 03:38 12,4 C 11,1 C 89 % 1012,2 hPa 0,0 l/m 0 min 0 min 0,0 UV-I 0 W/m 2,6 km/h (1 Bft)
26.04.2014 03:40 12,4 C 10,6 C 89 % 1012,1 hPa 0,0 l/m 0 min 0 min 0,0 UV-I 0 W/m 0,0 km/h (0 Bft)
26.04.2014 03:42 12,4 C 10,6 C 89 % 1012,2 hPa 0,0 l/m 0 min 0 min 0,0 UV-I 0 W/m 0,0 km/h (0 Bft)
26.04.2014 03:44 12,3 C 10,6 C 89 % 1012,2 hPa 0,0 l/m 0 min 0 min 0,0 UV-I 0 W/m 0,0 km/h (0 Bft)
26.04.2014 03:46 12,3 C 10,6 C 89 % 1012,2 hPa 0,0 l/m 0 min 0 min 0,0 UV-I 0 W/m 0,0 km/h (0 Bft)
26.04.2014 03:48 12,3 C 10,6 C 89 % 1012,2 hPa 0,0 l/m 0 min 0 min 0,0 UV-I 0 W/m 2,6 km/h (1 Bft)
26.04.2014 03:50 12,3 C 10,6 C 89 % 1012,3 hPa 0,0 l/m 0 min 0 min 0,0 UV-I 0 W/m 0,0 km/h (0 Bft)
26.04.2014 03:52 12,3 C 10,6 C 89 % 1012,3 hPa 0,0 l/m 0 min 0 min 0,0 UV-I 0 W/m 0,0 km/h (0 Bft)
26.04.2014 03:54 12,2 C 10,6 C 89 % 1012,4 hPa 0,0 l/m 0 min 0 min 0,0 UV-I 0 W/m 0,0 km/h (0 Bft)
26.04.2014 03:56 12,2 C 10,6 C 89 % 1012,4 hPa 0,0 l/m 0 min 0 min 0,0 UV-I 0 W/m 0,0 km/h (0 Bft)
26.04.2014 03:58 12,2 C 10,6 C 90 % 1012,4 hPa 0,0 l/m 0 min 0 min 0,0 UV-I 0 W/m 0,0 km/h (0 Bft)
26.04.2014 04:00 12,1 C 10,6 C 90 % 1012,3 hPa 0,0 l/m 0 min 0 min 0,0 UV-I 0 W/m 0,0 km/h (0 Bft)
26.04.2014 04:05 12,1 C 10,0 C 90 % 1012,4 hPa 0,0 l/m 0 min 0 min 0,0 UV-I 0 W/m 0,0 km/h (0 Bft)
26.04.2014 04:06 12,0 C 10,0 C 90 % 1012,4 hPa 0,0 l/m 0 min 0 min 0,0 UV-I 0 W/m 0,0 km/h (0 Bft)
26.04.2014 04:08 12,0 C 10,0 C 90 % 1012,4 hPa 0,0 l/m 0 min 0 min 0,0 UV-I 0 W/m 0,0 km/h (0 Bft)
26.04.2014 04:10 12,0 C 10,0 C 90 % 1012,3 hPa 0,0 l/m 0 min 0 min 0,0 UV-I 0 W/m 0,0 km/h (0 Bft)
26.04.2014 04:12 11,9 C 10,0 C 90 % 1012,4 hPa 0,0 l/m 0 min 0 min 0,0 UV-I 0 W/m 0,0 km/h (0 Bft)
26.04.2014 04:14 11,9 C 10,0 C 90 % 1012,4 hPa 0,0 l/m 0 min 0 min 0,0 UV-I 0 W/m 0,0 km/h (0 Bft)
26.04.2014 04:16 11,8 C 10,0 C 90 % 1012,3 hPa 0,0 l/m 0 min 0 min 0,0 UV-I 0 W/m 0,0 km/h (0 Bft)
26.04.2014 04:18 11,7 C 9,4 C 91 % 1012,3 hPa 0,0 l/m 0 min 0 min 0,0 UV-I 0 W/m 0,0 km/h (0 Bft)
26.04.2014 04:20 11,7 C 9,4 C 91 % 1012,3 hPa 0,0 l/m 0 min 0 min 0,0 UV-I 0 W/m 0,0 km/h (0 Bft)
26.04.2014 04:22 11,7 C 9,4 C 91 % 1012,2 hPa 0,0 l/m 0 min 0 min 0,0 UV-I 0 W/m 0,0 km/h (0 Bft)
26.04.2014 04:24 11,7 C 9,4 C 91 % 1012,3 hPa 0,0 l/m 0 min 0 min 0,0 UV-I 0 W/m 0,0 km/h (0 Bft)
26.04.2014 04:26 11,6 C 9,4 C 91 % 1012,3 hPa 0,0 l/m 0 min 0 min 0,0 UV-I 0 W/m 0,0 km/h (0 Bft)
26.04.2014 04:28 11,6 C 9,4 C 91 % 1012,4 hPa 0,0 l/m 0 min 0 min 0,0 UV-I 0 W/m 0,0 km/h (0 Bft)
26.04.2014 04:30 11,4 C 9,4 C 92 % 1012,4 hPa 0,0 l/m 0 min 0 min 0,0 UV-I 0 W/m 0,0 km/h (0 Bft)
26.04.2014 04:32 11,4 C 9,4 C 92 % 1012,2 hPa 0,0 l/m 0 min 0 min 0,0 UV-I 0 W/m 0,0 km/h (0 Bft)
26.04.2014 04:34 11,4 C 9,4 C 92 % 1012,3 hPa 0,0 l/m 0 min 0 min 0,0 UV-I 0 W/m 0,0 km/h (0 Bft)
26.04.2014 04:36 11,4 C 9,4 C 92 % 1012,2 hPa 0,0 l/m 0 min 0 min 0,0 UV-I 0 W/m 0,0 km/h (0 Bft)
26.04.2014 04:38 11,4 C 9,4 C 92 % 1012,2 hPa 0,0 l/m 0 min 0 min 0,0 UV-I 0 W/m 0,0 km/h (0 Bft)
26.04.2014 04:40 11,4 C 9,4 C 92 % 1012,2 hPa 0,0 l/m 0 min 0 min 0,0 UV-I 0 W/m 0,0 km/h (0 Bft)
26.04.2014 04:42 11,4 C 9,4 C 93 % 1012,1 hPa 0,0 l/m 0 min 0 min 0,0 UV-I 0 W/m 0,0 km/h (0 Bft)
26.04.2014 04:44 11,4 C 9,4 C 93 % 1012,1 hPa 0,0 l/m 0 min 0 min 0,0 UV-I 0 W/m 0,0 km/h (0 Bft)
26.04.2014 04:46 11,4 C 10,0 C 93 % 1012,2 hPa 0,0 l/m 0 min 0 min 0,0 UV-I 0 W/m 0,0 km/h (0 Bft)
26.04.2014 04:48 11,4 C 10,0 C 93 % 1012,3 hPa 0,0 l/m 0 min 0 min 0,0 UV-I 0 W/m 5,1 km/h (1 Bft)
26.04.2014 04:50 11,4 C 9,4 C 93 % 1012,2 hPa 0,0 l/m 0 min 0 min 0,0 UV-I 0 W/m 0,0 km/h (0 Bft)
26.04.2014 04:52 11,4 C 9,4 C 93 % 1012,3 hPa 0,0 l/m 0 min 0 min 0,0 UV-I 0 W/m 0,0 km/h (0 Bft)
26.04.2014 04:54 11,4 C 9,4 C 93 % 1012,1 hPa 0,0 l/m 0 min 0 min 0,0 UV-I 0 W/m 0,0 km/h (0 Bft)
26.04.2014 04:56 11,4 C 9,4 C 93 % 1012,1 hPa 0,0 l/m 0 min 0 min 0,0 UV-I 0 W/m 0,0 km/h (0 Bft)
26.04.2014 04:58 11,4 C 9,4 C 93 % 1012,0 hPa 0,0 l/m 0 min 0 min 0,0 UV-I 0 W/m 0,0 km/h (0 Bft)
26.04.2014 05:00 11,4 C 9,4 C 92 % 1012,0 hPa 0,0 l/m 0 min 0 min 0,0 UV-I 0 W/m 0,0 km/h (0 Bft)
26.04.2014 05:02 11,4 C 9,4 C 92 % 1012,0 hPa 0,0 l/m 0 min 0 min 0,0 UV-I 0 W/m 0,0 km/h (0 Bft)
26.04.2014 05:06 11,3 C 9,4 C 92 % 1012,1 hPa 0,0 l/m 0 min 0 min 0,0 UV-I 0 W/m 0,0 km/h (0 Bft)
26.04.2014 05:08 11,3 C 9,4 C 93 % 1012,1 hPa 0,0 l/m 0 min 0 min 0,0 UV-I 0 W/m 0,0 km/h (0 Bft)
26.04.2014 05:10 11,3 C 9,4 C 93 % 1012,0 hPa 0,0 l/m 0 min 0 min 0,0 UV-I 0 W/m 0,0 km/h (0 Bft)
26.04.2014 05:12 11,2 C 9,4 C 93 % 1012,1 hPa 0,0 l/m 0 min 0 min 0,0 UV-I 0 W/m 0,0 km/h (0 Bft)
26.04.2014 05:14 11,2 C 9,4 C 93 % 1012,1 hPa 0,0 l/m 0 min 0 min 0,0 UV-I 0 W/m 0,0 km/h (0 Bft)
26.04.2014 05:16 11,1 C 9,4 C 93 % 1012,0 hPa 0,0 l/m 0 min 0 min 0,0 UV-I 0 W/m 0,0 km/h (0 Bft)
26.04.2014 05:18 11,1 C 9,4 C 93 % 1012,0 hPa 0,0 l/m 0 min 0 min 0,0 UV-I 0 W/m 0,0 km/h (0 Bft)
26.04.2014 05:20 11,1 C 9,4 C 93 % 1012,0 hPa 0,0 l/m 0 min 0 min 0,0 UV-I 0 W/m 0,0 km/h (0 Bft)
26.04.2014 05:22 11,1 C 9,4 C 93 % 1012,0 hPa 0,0 l/m 0 min 0 min 0,0 UV-I 0 W/m 0,0 km/h (0 Bft)
26.04.2014 05:24 11,1 C 9,4 C 93 % 1012,0 hPa 0,0 l/m 0 min 0 min 0,0 UV-I 0 W/m 0,0 km/h (0 Bft)
26.04.2014 05:26 11,0 C 9,4 C 93 % 1012,0 hPa 0,0 l/m 0 min 0 min 0,0 UV-I 0 W/m 0,0 km/h (0 Bft)
26.04.2014 05:28 11,0 C 9,4 C 93 % 1012,1 hPa 0,0 l/m 0 min 0 min 0,0 UV-I 0 W/m 7,7 km/h (2 Bft)
26.04.2014 05:30 11,0 C 9,4 C 93 % 1012,0 hPa 0,0 l/m 0 min 0 min 0,0 UV-I 0 W/m 0,0 km/h (0 Bft)
26.04.2014 05:32 11,0 C 9,4 C 93 % 1012,1 hPa 0,0 l/m 0 min 0 min 0,0 UV-I 0 W/m 0,0 km/h (0 Bft)
26.04.2014 05:34 11,0 C 9,4 C 93 % 1012,0 hPa 0,0 l/m 0 min 0 min 0,0 UV-I 0 W/m 0,0 km/h (0 Bft)
26.04.2014 05:36 11,0 C 9,4 C 93 % 1012,0 hPa 0,0 l/m 0 min 0 min 0,0 UV-I 0 W/m 0,0 km/h (0 Bft)
26.04.2014 05:38 11,0 C 9,4 C 93 % 1012,0 hPa 0,0 l/m 0 min 0 min 0,0 UV-I 0 W/m 0,0 km/h (0 Bft)
26.04.2014 05:40 11,0 C 9,4 C 94 % 1012,0 hPa 0,0 l/m 0 min 0 min 0,0 UV-I 0 W/m 0,0 km/h (0 Bft)
26.04.2014 05:42 11,0 C 9,4 C 94 % 1012,0 hPa 0,0 l/m 0 min 0 min 0,0 UV-I 0 W/m 0,0 km/h (0 Bft)
26.04.2014 05:44 11,0 C 9,4 C 93 % 1012,1 hPa 0,0 l/m 0 min 0 min 0,0 UV-I 0 W/m 0,0 km/h (0 Bft)
26.04.2014 05:46 11,0 C 9,4 C 93 % 1012,0 hPa 0,0 l/m 0 min 0 min 0,0 UV-I 0 W/m 0,0 km/h (0 Bft)
26.04.2014 05:48 11,0 C 9,4 C 93 % 1011,9 hPa 0,0 l/m 0 min 0 min 0,0 UV-I 0 W/m 0,0 km/h (0 Bft)
26.04.2014 05:50 11,0 C 9,4 C 93 % 1012,0 hPa 0,0 l/m 0 min 0 min 0,0 UV-I 0 W/m 0,0 km/h (0 Bft)
26.04.2014 05:52 10,9 C 9,4 C 93 % 1011,9 hPa 0,0 l/m 0 min 0 min 0,0 UV-I 0 W/m 0,0 km/h (0 Bft)
26.04.2014 05:54 10,9 C 9,4 C 93 % 1011,9 hPa 0,0 l/m 0 min 0 min 0,0 UV-I 0 W/m 0,0 km/h (0 Bft)
26.04.2014 05:56 10,9 C 9,4 C 93 % 1012,0 hPa 0,0 l/m 0 min 0 min 0,0 UV-I 0 W/m 0,0 km/h (0 Bft)
26.04.2014 05:58 10,9 C 9,4 C 93 % 1011,9 hPa 0,0 l/m 0 min 0 min 0,0 UV-I 0 W/m 0,0 km/h (0 Bft)
26.04.2014 06:00 10,9 C 9,4 C 93 % 1012,0 hPa 0,0 l/m 0 min 0 min 0,0 UV-I 0 W/m 0,0 km/h (0 Bft)
26.04.2014 06:02 10,9 C 9,4 C 93 % 1012,0 hPa 0,0 l/m 0 min 0 min 0,0 UV-I 0 W/m 0,0 km/h (0 Bft)
26.04.2014 06:06 10,8 C 9,4 C 93 % 1012,0 hPa 0,0 l/m 0 min 0 min 0,0 UV-I 0 W/m 0,0 km/h (0 Bft)
26.04.2014 06:08 10,8 C 8,9 C 93 % 1012,0 hPa 0,0 l/m 0 min 0 min 0,0 UV-I 0 W/m 0,0 km/h (0 Bft)
26.04.2014 06:10 10,8 C 9,4 C 93 % 1012,1 hPa 0,0 l/m 0 min 0 min 0,0 UV-I 0 W/m 0,0 km/h (0 Bft)
26.04.2014 06:12 10,8 C 9,4 C 93 % 1012,1 hPa 0,0 l/m 0 min 0 min 0,0 UV-I 0 W/m 0,0 km/h (0 Bft)
26.04.2014 06:14 10,7 C 9,4 C 93 % 1012,0 hPa 0,0 l/m 0 min 0 min 0,0 UV-I 0 W/m 0,0 km/h (0 Bft)
26.04.2014 06:16 10,7 C 9,4 C 93 % 1012,0 hPa 0,0 l/m 0 min 0 min 0,0 UV-I 0 W/m 0,0 km/h (0 Bft)
26.04.2014 06:18 10,7 C 8,9 C 93 % 1012,0 hPa 0,0 l/m 0 min 0 min 0,0 UV-I 0 W/m 0,0 km/h (0 Bft)
26.04.2014 06:20 10,7 C 8,9 C 93 % 1012,0 hPa 0,0 l/m 0 min 0 min 0,0 UV-I 5 W/m 0,0 km/h (0 Bft)
26.04.2014 06:22 10,7 C 8,9 C 94 % 1012,0 hPa 0,0 l/m 0 min 0 min 0,0 UV-I 5 W/m 0,0 km/h (0 Bft)
26.04.2014 06:24 10,7 C 8,9 C 94 % 1012,1 hPa 0,0 l/m 0 min 0 min 0,0 UV-I 5 W/m 0,0 km/h (0 Bft)
26.04.2014 06:26 10,6 C 8,9 C 94 % 1012,1 hPa 0,0 l/m 0 min 0 min 0,0 UV-I 5 W/m 0,0 km/h (0 Bft)
26.04.2014 06:28 10,6 C 8,9 C 94 % 1012,1 hPa 0,0 l/m 0 min 0 min 0,0 UV-I 7 W/m 0,0 km/h (0 Bft)
26.04.2014 06:30 10,6 C 8,9 C 94 % 1012,2 hPa 0,0 l/m 0 min 0 min 0,0 UV-I 7 W/m 0,0 km/h (0 Bft)
26.04.2014 06:32 10,6 C 8,9 C 94 % 1012,3 hPa 0,0 l/m 0 min 0 min 0,0 UV-I 9 W/m 0,0 km/h (0 Bft)
26.04.2014 06:34 10,6 C 8,9 C 94 % 1012,3 hPa 0,0 l/m 0 min 0 min 0,0 UV-I 9 W/m 0,0 km/h (0 Bft)
26.04.2014 06:36 10,6 C 8,9 C 94 % 1012,3 hPa 0,0 l/m 0 min 0 min 0,0 UV-I 11 W/m 0,0 km/h (0 Bft)
26.04.2014 06:38 10,5 C 8,9 C 94 % 1012,4 hPa 0,0 l/m 0 min 0 min 0,0 UV-I 11 W/m 0,0 km/h (0 Bft)
26.04.2014 06:40 10,5 C 8,9 C 94 % 1012,3 hPa 0,0 l/m 0 min 0 min 0,0 UV-I 12 W/m 0,0 km/h (0 Bft)
26.04.2014 06:42 10,4 C 8,9 C 94 % 1012,4 hPa 0,0 l/m 0 min 0 min 0,0 UV-I 12 W/m 0,0 km/h (0 Bft)
26.04.2014 06:44 10,4 C 8,9 C 94 % 1012,3 hPa 0,0 l/m 0 min 0 min 0,0 UV-I 14 W/m 0,0 km/h (0 Bft)
26.04.2014 06:46 10,4 C 8,9 C 94 % 1012,4 hPa 0,0 l/m 0 min 0 min 0,0 UV-I 16 W/m 0,0 km/h (0 Bft)
26.04.2014 06:48 10,4 C 8,9 C 94 % 1012,3 hPa 0,0 l/m 0 min 0 min 0,0 UV-I 16 W/m 0,0 km/h (0 Bft)
26.04.2014 06:50 10,4 C 8,9 C 94 % 1012,4 hPa 0,0 l/m 0 min 0 min 0,0 UV-I 16 W/m 0,0 km/h (0 Bft)
26.04.2014 06:52 10,4 C 8,9 C 94 % 1012,3 hPa 0,0 l/m 0 min 0 min 0,0 UV-I 19 W/m 0,0 km/h (0 Bft)
26.04.2014 06:54 10,4 C 8,9 C 94 % 1012,4 hPa 0,0 l/m 0 min 0 min 0,0 UV-I 19 W/m 0,0 km/h (0 Bft)
26.04.2014 06:56 10,4 C 8,9 C 94 % 1012,4 hPa 0,0 l/m 0 min 0 min 0,0 UV-I 21 W/m 0,0 km/h (0 Bft)
26.04.2014 06:58 10,4 C 8,9 C 94 % 1012,4 hPa 0,0 l/m 0 min 0 min 0,0 UV-I 25 W/m 0,0 km/h (0 Bft)
26.04.2014 07:00 10,4 C 8,9 C 94 % 1012,4 hPa 0,0 l/m 0 min 0 min 0,0 UV-I 26 W/m 0,0 km/h (0 Bft)
26.04.2014 07:02 10,4 C 8,9 C 94 % 1012,4 hPa 0,0 l/m 0 min 0 min 0,0 UV-I 28 W/m 0,0 km/h (0 Bft)
26.04.2014 07:06 10,6 C 8,9 C 95 % 1012,4 hPa 0,0 l/m 0 min 0 min 0,0 UV-I 33 W/m 0,0 km/h (0 Bft)
26.04.2014 07:08 10,6 C 8,9 C 95 % 1012,4 hPa 0,0 l/m 0 min 0 min 0,0 UV-I 37 W/m 0,0 km/h (0 Bft)
26.04.2014 07:10 10,6 C 8,9 C 95 % 1012,4 hPa 0,0 l/m 0 min 0 min 0,0 UV-I 40 W/m 0,0 km/h (0 Bft)
26.04.2014 07:12 10,7 C 8,9 C 94 % 1012,4 hPa 0,0 l/m 0 min 0 min 0,0 UV-I 44 W/m 0,0 km/h (0 Bft)
26.04.2014 07:14 10,7 C 9,4 C 95 % 1012,4 hPa 0,0 l/m 0 min 0 min 0,0 UV-I 49 W/m 0,0 km/h (0 Bft)
26.04.2014 07:16 10,7 C 9,4 C 95 % 1012,4 hPa 0,0 l/m 0 min 0 min 0,0 UV-I 51 W/m 0,0 km/h (0 Bft)
26.04.2014 07:18 10,7 C 9,4 C 95 % 1012,4 hPa 0,0 l/m 0 min 0 min 0,0 UV-I 54 W/m 0,0 km/h (0 Bft)
26.04.2014 07:20 10,8 C 9,4 C 95 % 1012,4 hPa 0,0 l/m 0 min 0 min 0,0 UV-I 56 W/m 0,0 km/h (0 Bft)
26.04.2014 07:22 10,8 C 9,4 C 94 % 1012,4 hPa 0,0 l/m 0 min 0 min 0,0 UV-I 60 W/m 0,0 km/h (0 Bft)
26.04.2014 07:24 10,8 C 9,4 C 94 % 1012,4 hPa 0,0 l/m 0 min 0 min 0,0 UV-I 62 W/m 0,0 km/h (0 Bft)
26.04.2014 07:26 10,8 C 9,4 C 94 % 1012,4 hPa 0,0 l/m 0 min 0 min 0,0 UV-I 63 W/m 0,0 km/h (0 Bft)
26.04.2014 07:28 10,9 C 9,4 C 94 % 1012,4 hPa 0,0 l/m 0 min 0 min 0,0 UV-I 65 W/m 0,0 km/h (0 Bft)
26.04.2014 07:30 10,9 C 9,4 C 94 % 1012,4 hPa 0,0 l/m 0 min 0 min 0,0 UV-I 65 W/m 0,0 km/h (0 Bft)
26.04.2014 07:32 10,9 C 10,0 C 94 % 1012,3 hPa 0,0 l/m 0 min 0 min 0,0 UV-I 67 W/m 0,0 km/h (0 Bft)
26.04.2014 07:34 11,0 C 10,0 C 94 % 1012,4 hPa 0,0 l/m 0 min 0 min 0,0 UV-I 67 W/m 0,0 km/h (0 Bft)
26.04.2014 07:36 11,0 C 10,0 C 94 % 1012,4 hPa 0,0 l/m 0 min 0 min 0,0 UV-I 67 W/m 0,0 km/h (0 Bft)
26.04.2014 07:38 11,1 C 10,0 C 94 % 1012,4 hPa 0,0 l/m 0 min 0 min 0,0 UV-I 67 W/m 0,0 km/h (0 Bft)
26.04.2014 07:40 11,1 C 10,0 C 94 % 1012,4 hPa 0,0 l/m 0 min 0 min 0,0 UV-I 67 W/m 0,0 km/h (0 Bft)
26.04.2014 07:42 11,2 C 10,0 C 94 % 1012,4 hPa 0,0 l/m 0 min 0 min 0,0 UV-I 67 W/m 0,0 km/h (0 Bft)
26.04.2014 07:44 11,2 C 10,0 C 94 % 1012,4 hPa 0,0 l/m 0 min 0 min 0,0 UV-I 67 W/m 2,6 km/h (1 Bft)
26.04.2014 07:46 11,2 C 10,0 C 93 % 1012,4 hPa 0,0 l/m 0 min 0 min 0,0 UV-I 69 W/m 2,6 km/h (1 Bft)
26.04.2014 07:48 11,2 C 10,0 C 93 % 1012,4 hPa 0,0 l/m 0 min 0 min 0,0 UV-I 69 W/m 2,6 km/h (1 Bft)
26.04.2014 07:50 11,3 C 10,0 C 93 % 1012,4 hPa 0,0 l/m 0 min 0 min 0,0 UV-I 74 W/m 0,0 km/h (0 Bft)
26.04.2014 07:52 11,3 C 10,0 C 93 % 1012,4 hPa 0,0 l/m 0 min 0 min 0,0 UV-I 76 W/m 5,1 km/h (1 Bft)
26.04.2014 07:54 11,3 C 10,6 C 93 % 1012,5 hPa 0,0 l/m 0 min 0 min 0,0 UV-I 76 W/m 2,6 km/h (1 Bft)
26.04.2014 07:56 11,4 C 10,6 C 93 % 1012,4 hPa 0,0 l/m 0 min 0 min 0,0 UV-I 77 W/m 0,0 km/h (0 Bft)
26.04.2014 07:58 11,4 C 10,6 C 93 % 1012,4 hPa 0,0 l/m 0 min 0 min 0,0 UV-I 79 W/m 0,0 km/h (0 Bft)
26.04.2014 08:00 11,4 C 10,6 C 93 % 1012,4 hPa 0,0 l/m 0 min 0 min 0,0 UV-I 81 W/m 2,6 km/h (1 Bft)
26.04.2014 08:02 11,5 C 10,6 C 93 % 1012,4 hPa 0,0 l/m 0 min 0 min 0,0 UV-I 84 W/m 0,0 km/h (0 Bft)
26.04.2014 08:06 11,6 C 10,6 C 93 % 1012,4 hPa 0,0 l/m 0 min 0 min 0,0 UV-I 88 W/m 2,6 km/h (1 Bft)
26.04.2014 08:08 11,6 C 10,6 C 92 % 1012,4 hPa 0,0 l/m 0 min 0 min 0,0 UV-I 91 W/m 0,0 km/h (0 Bft)
26.04.2014 08:10 11,7 C 10,6 C 92 % 1012,5 hPa 0,0 l/m 0 min 0 min 0,0 UV-I 93 W/m 2,6 km/h (1 Bft)
26.04.2014 08:12 11,7 C 10,6 C 92 % 1012,4 hPa 0,0 l/m 0 min 0 min 0,0 UV-I 93 W/m 0,0 km/h (0 Bft)
26.04.2014 08:14 11,7 C 10,6 C 92 % 1012,4 hPa 0,0 l/m 0 min 0 min 0,0 UV-I 95 W/m 0,0 km/h (0 Bft)
26.04.2014 08:16 11,8 C 10,6 C 92 % 1012,4 hPa 0,0 l/m 0 min 0 min 0,0 UV-I 142 W/m 0,0 km/h (0 Bft)
26.04.2014 08:18 11,9 C 11,1 C 91 % 1012,4 hPa 0,0 l/m 2 min 0 min 0,0 UV-I 200 W/m 2,6 km/h (1 Bft)
26.04.2014 08:20 11,9 C 11,1 C 91 % 1012,3 hPa 0,0 l/m 2 min 0 min 0,0 UV-I 197 W/m 5,1 km/h (1 Bft)
26.04.2014 08:22 12,0 C 11,1 C 91 % 1012,4 hPa 0,0 l/m 0 min 0 min 0,0 UV-I 163 W/m 5,1 km/h (1 Bft)
26.04.2014 08:24 12,0 C 11,1 C 91 % 1012,3 hPa 0,0 l/m 2 min 0 min 0,0 UV-I 179 W/m 0,0 km/h (0 Bft)
26.04.2014 08:26 12,1 C 11,1 C 91 % 1012,4 hPa 0,0 l/m 2 min 0 min 0,0 UV-I 185 W/m 0,0 km/h (0 Bft)
26.04.2014 08:28 12,1 C 11,1 C 90 % 1012,4 hPa 0,0 l/m 0 min 0 min 0,0 UV-I 135 W/m 2,6 km/h (1 Bft)
26.04.2014 08:30 12,1 C 11,1 C 90 % 1012,4 hPa 0,0 l/m 0 min 0 min 0,0 UV-I 179 W/m 0,0 km/h (0 Bft)
26.04.2014 08:32 12,1 C 11,1 C 90 % 1012,4 hPa 0,0 l/m 2 min 0 min 0,0 UV-I 227 W/m 2,6 km/h (1 Bft)
26.04.2014 08:34 12,1 C 11,1 C 90 % 1012,4 hPa 0,0 l/m 2 min 0 min 0,0 UV-I 244 W/m 5,1 km/h (1 Bft)
26.04.2014 08:36 12,2 C 11,1 C 90 % 1012,4 hPa 0,0 l/m 2 min 0 min 0,0 UV-I 251 W/m 0,0 km/h (0 Bft)
26.04.2014 08:38 12,2 C 11,1 C 89 % 1012,4 hPa 0,0 l/m 2 min 0 min 0,0 UV-I 258 W/m 2,6 km/h (1 Bft)
26.04.2014 08:40 12,3 C 11,1 C 90 % 1012,4 hPa 0,0 l/m 2 min 0 min 0,0 UV-I 262 W/m 0,0 km/h (0 Bft)
26.04.2014 08:42 12,3 C 11,1 C 89 % 1012,4 hPa 0,0 l/m 2 min 0 min 0,0 UV-I 264 W/m 2,6 km/h (1 Bft)
26.04.2014 08:44 12,4 C 11,1 C 89 % 1012,4 hPa 0,0 l/m 2 min 0 min 0,0 UV-I 274 W/m 7,7 km/h (2 Bft)
26.04.2014 08:46 12,4 C 11,7 C 89 % 1012,4 hPa 0,0 l/m 2 min 0 min 0,0 UV-I 278 W/m 0,0 km/h (0 Bft)
26.04.2014 08:48 12,5 C 11,7 C 89 % 1012,4 hPa 0,0 l/m 2 min 0 min 0,0 UV-I 292 W/m 2,6 km/h (1 Bft)
26.04.2014 08:50 12,5 C 11,7 C 89 % 1012,4 hPa 0,0 l/m 2 min 0 min 0,0 UV-I 288 W/m 12,9 km/h (3 Bft)
26.04.2014 08:52 12,5 C 11,7 C 88 % 1012,4 hPa 0,0 l/m 2 min 0 min 0,0 UV-I 290 W/m 5,1 km/h (1 Bft)
26.04.2014 08:54 12,6 C 11,7 C 88 % 1012,4 hPa 0,0 l/m 2 min 0 min 0,0 UV-I 223 W/m 10,3 km/h (2 Bft)
26.04.2014 08:56 12,6 C 11,7 C 87 % 1012,3 hPa 0,0 l/m 2 min 0 min 0,0 UV-I 272 W/m 12,9 km/h (3 Bft)
26.04.2014 08:58 12,6 C 11,7 C 88 % 1012,3 hPa 0,0 l/m 2 min 0 min 0,0 UV-I 257 W/m 5,1 km/h (1 Bft)
26.04.2014 09:00 12,6 C 11,7 C 87 % 1012,4 hPa 0,0 l/m 2 min 0 min 0,0 UV-I 246 W/m 0,0 km/h (0 Bft)
26.04.2014 09:02 12,7 C 11,7 C 88 % 1012,4 hPa 0,0 l/m 0 min 0 min 0,0 UV-I 218 W/m 5,1 km/h (1 Bft)
26.04.2014 09:06 12,7 C 11,7 C 87 % 1012,4 hPa 0,0 l/m 2 min 0 min 0,0 UV-I 255 W/m 0,0 km/h (0 Bft)
26.04.2014 09:08 12,7 C 11,7 C 87 % 1012,4 hPa 0,0 l/m 2 min 0 min 0,0 UV-I 278 W/m 5,1 km/h (1 Bft)
26.04.2014 09:10 12,8 C 11,7 C 87 % 1012,4 hPa 0,0 l/m 0 min 0 min 0,0 UV-I 236 W/m 2,6 km/h (1 Bft)
26.04.2014 09:12 12,8 C 11,7 C 87 % 1012,4 hPa 0,0 l/m 2 min 0 min 0,0 UV-I 260 W/m 0,0 km/h (0 Bft)
26.04.2014 09:14 12,9 C 11,7 C 87 % 1012,4 hPa 0,0 l/m 2 min 0 min 0,0 UV-I 283 W/m 0,0 km/h (0 Bft)
26.04.2014 09:16 12,9 C 11,7 C 87 % 1012,4 hPa 0,0 l/m 2 min 0 min 0,0 UV-I 288 W/m 2,6 km/h (1 Bft)
26.04.2014 09:18 12,9 C 11,7 C 86 % 1012,4 hPa 0,0 l/m 2 min 0 min 0,0 UV-I 302 W/m 5,1 km/h (1 Bft)
26.04.2014 09:20 12,9 C 11,7 C 86 % 1012,4 hPa 0,0 l/m 0 min 0 min 0,0 UV-I 139 W/m 5,1 km/h (1 Bft)
26.04.2014 09:22 12,9 C 11,7 C 86 % 1012,4 hPa 0,0 l/m 0 min 0 min 0,0 UV-I 139 W/m 5,1 km/h (1 Bft)
26.04.2014 09:24 12,9 C 11,7 C 86 % 1012,3 hPa 0,0 l/m 2 min 0 min 0,0 UV-I 355 W/m 10,3 km/h (2 Bft)
26.04.2014 09:26 13,1 C 12,2 C 86 % 1012,4 hPa 0,0 l/m 2 min 0 min 0,0 UV-I 383 W/m 7,7 km/h (2 Bft)
26.04.2014 09:28 13,2 C 12,2 C 86 % 1012,4 hPa 0,0 l/m 2 min 0 min 0,0 UV-I 392 W/m 0,0 km/h (0 Bft)
26.04.2014 09:30 13,3 C 12,2 C 85 % 1012,4 hPa 0,0 l/m 2 min 0 min 0,0 UV-I 322 W/m 0,0 km/h (0 Bft)
26.04.2014 09:32 13,4 C 12,2 C 86 % 1012,4 hPa 0,0 l/m 0 min 0 min 0,0 UV-I 163 W/m 0,0 km/h (0 Bft)
26.04.2014 09:34 13,4 C 12,8 C 85 % 1012,4 hPa 0,0 l/m 2 min 0 min 0,0 UV-I 339 W/m 7,7 km/h (2 Bft)
26.04.2014 09:36 13,4 C 13,3 C 84 % 1012,4 hPa 0,0 l/m 2 min 0 min 0,0 UV-I 403 W/m 2,6 km/h (1 Bft)
26.04.2014 09:38 13,4 C 13,9 C 84 % 1012,4 hPa 0,0 l/m 2 min 0 min 0,5 UV-I 425 W/m 5,1 km/h (1 Bft)
26.04.2014 09:40 13,5 C 15,0 C 84 % 1012,4 hPa 0,0 l/m 2 min 0 min 0,0 UV-I 431 W/m 2,6 km/h (1 Bft)
26.04.2014 09:42 13,6 C 15,6 C 84 % 1012,4 hPa 0,0 l/m 2 min 0 min 0,6 UV-I 304 W/m 2,6 km/h (1 Bft)
26.04.2014 09:44 13,7 C 15,6 C 83 % 1012,4 hPa 0,0 l/m 2 min 0 min 0,0 UV-I 439 W/m 0,0 km/h (0 Bft)
26.04.2014 09:46 13,8 C 15,0 C 83 % 1012,4 hPa 0,0 l/m 2 min 0 min 0,5 UV-I 385 W/m 2,6 km/h (1 Bft)
26.04.2014 09:48 13,8 C 15,0 C 82 % 1012,4 hPa 0,0 l/m 2 min 0 min 0,6 UV-I 450 W/m 0,0 km/h (0 Bft)
26.04.2014 09:50 14,0 C 15,6 C 83 % 1012,4 hPa 0,0 l/m 2 min 0 min 0,7 UV-I 457 W/m 0,0 km/h (0 Bft)
26.04.2014 09:52 14,0 C 16,1 C 82 % 1012,4 hPa 0,0 l/m 2 min 0 min 0,6 UV-I 431 W/m 0,0 km/h (0 Bft)
26.04.2014 09:54 13,9 C 16,1 C 81 % 1012,4 hPa 0,0 l/m 2 min 0 min 0,7 UV-I 450 W/m 2,6 km/h (1 Bft)
26.04.2014 09:56 14,0 C 16,1 C 82 % 1012,4 hPa 0,0 l/m 2 min 0 min 0,7 UV-I 452 W/m 0,0 km/h (0 Bft)
26.04.2014 09:58 14,1 C 15,6 C 81 % 1012,4 hPa 0,0 l/m 2 min 0 min 0,7 UV-I 480 W/m 2,6 km/h (1 Bft)
26.04.2014 10:00 14,0 C 15,0 C 81 % 1012,4 hPa 0,0 l/m 2 min 0 min 0,6 UV-I 408 W/m 0,0 km/h (0 Bft)
26.04.2014 10:02 14,0 C 14,4 C 81 % 1012,4 hPa 0,0 l/m 0 min 0 min 0,6 UV-I 262 W/m 0,0 km/h (0 Bft)
26.04.2014 10:06 13,9 C 13,9 C 82 % 1012,4 hPa 0,0 l/m 0 min 0 min 0,6 UV-I 299 W/m 2,6 km/h (1 Bft)
26.04.2014 10:08 14,1 C 14,4 C 82 % 1012,4 hPa 0,0 l/m 2 min 0 min 0,9 UV-I 399 W/m 0,0 km/h (0 Bft)
26.04.2014 10:10 14,2 C 14,4 C 81 % 1012,4 hPa 0,0 l/m 0 min 0 min 0,5 UV-I 214 W/m 0,0 km/h (0 Bft)
26.04.2014 10:12 14,2 C 13,9 C 81 % 1012,4 hPa 0,0 l/m 0 min 0 min 0,6 UV-I 223 W/m 0,0 km/h (0 Bft)
26.04.2014 10:14 14,2 C 14,4 C 82 % 1012,4 hPa 0,0 l/m 0 min 0 min 1,0 UV-I 246 W/m 0,0 km/h (0 Bft)
26.04.2014 10:16 14,4 C 14,4 C 82 % 1012,4 hPa 0,0 l/m 2 min 0 min 1,1 UV-I 573 W/m 0,0 km/h (0 Bft)
26.04.2014 10:18 14,8 C 15,0 C 80 % 1012,4 hPa 0,0 l/m 2 min 0 min 1,1 UV-I 568 W/m 0,0 km/h (0 Bft)
26.04.2014 10:20 15,1 C 16,1 C 79 % 1012,3 hPa 0,0 l/m 2 min 0 min 1,2 UV-I 591 W/m 2,6 km/h (1 Bft)
26.04.2014 10:22 15,4 C 16,1 C 79 % 1012,3 hPa 0,0 l/m 2 min 0 min 1,1 UV-I 482 W/m 0,0 km/h (0 Bft)
26.04.2014 10:24 15,6 C 16,7 C 78 % 1012,3 hPa 0,0 l/m 2 min 0 min 1,1 UV-I 497 W/m 0,0 km/h (0 Bft)
26.04.2014 10:26 15,6 C 16,1 C 76 % 1012,4 hPa 0,0 l/m 2 min 0 min 1,2 UV-I 531 W/m 0,0 km/h (0 Bft)
26.04.2014 10:28 15,6 C 16,1 C 77 % 1012,3 hPa 0,0 l/m 2 min 0 min 1,3 UV-I 617 W/m 12,9 km/h (3 Bft)
26.04.2014 10:30 15,8 C 16,1 C 76 % 1012,3 hPa 0,0 l/m 2 min 0 min 1,3 UV-I 555 W/m 12,9 km/h (3 Bft)
26.04.2014 10:32 16,0 C 16,1 C 76 % 1012,3 hPa 0,0 l/m 2 min 0 min 1,1 UV-I 534 W/m 7,7 km/h (2 Bft)
26.04.2014 10:34 15,9 C 15,6 C 76 % 1012,3 hPa 0,0 l/m 2 min 0 min 1,2 UV-I 464 W/m 0,0 km/h (0 Bft)
26.04.2014 10:36 15,8 C 15,6 C 75 % 1012,3 hPa 0,0 l/m 2 min 0 min 1,4 UV-I 592 W/m 0,0 km/h (0 Bft)
26.04.2014 10:38 15,7 C 15,6 C 74 % 1012,3 hPa 0,0 l/m 2 min 0 min 1,2 UV-I 552 W/m 10,3 km/h (2 Bft)
26.04.2014 10:40 15,7 C 15,6 C 74 % 1012,3 hPa 0,0 l/m 2 min 0 min 1,4 UV-I 573 W/m 0,0 km/h (0 Bft)
26.04.2014 10:42 15,7 C 16,1 C 75 % 1012,2 hPa 0,0 l/m 2 min 0 min 1,5 UV-I 645 W/m 2,6 km/h (1 Bft)
26.04.2014 10:44 15,7 C 16,1 C 74 % 1012,2 hPa 0,0 l/m 2 min 0 min 1,3 UV-I 554 W/m 0,0 km/h (0 Bft)
26.04.2014 10:46 15,7 C 16,1 C 74 % 1012,1 hPa 0,0 l/m 0 min 0 min 1,0 UV-I 295 W/m 2,6 km/h (1 Bft)
26.04.2014 10:48 15,5 C 15,6 C 73 % 1012,2 hPa 0,0 l/m 0 min 0 min 0,9 UV-I 246 W/m 0,0 km/h (0 Bft)
26.04.2014 10:50 15,1 C 15,0 C 74 % 1012,3 hPa 0,0 l/m 0 min 0 min 1,1 UV-I 265 W/m 2,6 km/h (1 Bft)
26.04.2014 10:52 15,0 C 15,0 C 75 % 1012,2 hPa 0,0 l/m 0 min 0 min 1,1 UV-I 278 W/m 0,0 km/h (0 Bft)
26.04.2014 10:54 14,7 C 15,0 C 74 % 1012,2 hPa 0,0 l/m 0 min 0 min 1,0 UV-I 299 W/m 0,0 km/h (0 Bft)
26.04.2014 10:56 14,8 C 15,0 C 77 % 1012,2 hPa 0,0 l/m 0 min 0 min 1,2 UV-I 325 W/m 0,0 km/h (0 Bft)
26.04.2014 10:58 14,9 C 15,0 C 76 % 1012,1 hPa 0,0 l/m 2 min 0 min 1,2 UV-I 418 W/m 2,6 km/h (1 Bft)
26.04.2014 11:00 14,8 C 15,0 C 75 % 1012,1 hPa 0,0 l/m 2 min 0 min 1,5 UV-I 489 W/m 0,0 km/h (0 Bft)
26.04.2014 11:02 14,9 C 15,6 C 76 % 1012,1 hPa 0,0 l/m 2 min 0 min 1,5 UV-I 520 W/m 0,0 km/h (0 Bft)
26.04.2014 11:06 15,2 C 16,1 C 75 % 1012,1 hPa 0,0 l/m 2 min 0 min 1,3 UV-I 388 W/m 0,0 km/h (0 Bft)
26.04.2014 11:08 15,3 C 16,1 C 75 % 1012,0 hPa 0,0 l/m 0 min 0 min 1,3 UV-I 352 W/m 2,6 km/h (1 Bft)
26.04.2014 11:10 15,4 C 16,1 C 76 % 1012,0 hPa 0,0 l/m 2 min 0 min 1,8 UV-I 392 W/m 10,3 km/h (2 Bft)
26.04.2014 11:12 15,6 C 16,1 C 76 % 1012,0 hPa 0,0 l/m 2 min 0 min 1,4 UV-I 392 W/m 5,1 km/h (1 Bft)
26.04.2014 11:14 15,7 C 16,1 C 74 % 1012,0 hPa 0,0 l/m 2 min 0 min 1,4 UV-I 378 W/m 2,6 km/h (1 Bft)
26.04.2014 11:16 15,6 C 16,1 C 74 % 1012,0 hPa 0,0 l/m 2 min 0 min 1,4 UV-I 577 W/m 5,1 km/h (1 Bft)
26.04.2014 11:18 15,4 C 16,1 C 76 % 1011,9 hPa 0,0 l/m 2 min 0 min 2,1 UV-I 577 W/m 0,0 km/h (0 Bft)
26.04.2014 11:20 15,7 C 16,7 C 76 % 1011,9 hPa 0,0 l/m 2 min 0 min 1,5 UV-I 464 W/m 0,0 km/h (0 Bft)
26.04.2014 11:22 15,9 C 16,7 C 76 % 1011,9 hPa 0,0 l/m 2 min 0 min 1,5 UV-I 482 W/m 0,0 km/h (0 Bft)
26.04.2014 11:24 16,1 C 17,2 C 74 % 1011,9 hPa 0,0 l/m 2 min 0 min 1,5 UV-I 441 W/m 0,0 km/h (0 Bft)
26.04.2014 11:26 15,9 C 16,7 C 72 % 1011,9 hPa 0,0 l/m 2 min 0 min 1,4 UV-I 420 W/m 0,0 km/h (0 Bft)
26.04.2014 11:28 15,9 C 16,7 C 73 % 1011,9 hPa 0,0 l/m 2 min 0 min 1,5 UV-I 422 W/m 2,6 km/h (1 Bft)
26.04.2014 11:30 15,9 C 16,7 C 73 % 1011,8 hPa 0,0 l/m 2 min 0 min 1,4 UV-I 404 W/m 10,3 km/h (2 Bft)
26.04.2014 11:32 16,0 C 16,7 C 72 % 1011,8 hPa 0,0 l/m 0 min 0 min 1,3 UV-I 350 W/m 10,3 km/h (2 Bft)
26.04.2014 11:34 16,1 C 16,7 C 73 % 1011,9 hPa 0,0 l/m 0 min 0 min 1,2 UV-I 329 W/m 7,7 km/h (2 Bft)
26.04.2014 11:36 15,9 C 16,7 C 72 % 1011,8 hPa 0,0 l/m 0 min 0 min 1,2 UV-I 327 W/m 5,1 km/h (1 Bft)
26.04.2014 11:38 15,8 C 16,7 C 71 % 1011,8 hPa 0,0 l/m 0 min 0 min 1,2 UV-I 325 W/m 5,1 km/h (1 Bft)
26.04.2014 11:40 15,8 C 16,7 C 72 % 1011,8 hPa 0,0 l/m 0 min 0 min 1,2 UV-I 325 W/m 0,0 km/h (0 Bft)
26.04.2014 11:42 15,7 C 16,7 C 73 % 1011,8 hPa 0,0 l/m 0 min 0 min 1,2 UV-I 318 W/m 0,0 km/h (0 Bft)
26.04.2014 11:44 15,7 C 16,7 C 74 % 1011,8 hPa 0,0 l/m 0 min 0 min 1,2 UV-I 329 W/m 7,7 km/h (2 Bft)
26.04.2014 11:46 15,9 C 16,7 C 75 % 1011,8 hPa 0,0 l/m 0 min 0 min 1,4 UV-I 373 W/m 7,7 km/h (2 Bft)
26.04.2014 11:48 16,1 C 16,7 C 74 % 1011,8 hPa 0,0 l/m 2 min 0 min 1,5 UV-I 410 W/m 0,0 km/h (0 Bft)
26.04.2014 11:50 16,3 C 17,2 C 73 % 1011,8 hPa 0,0 l/m 2 min 0 min 1,6 UV-I 434 W/m 0,0 km/h (0 Bft)
26.04.2014 11:52 16,4 C 17,8 C 72 % 1011,8 hPa 0,0 l/m 2 min 0 min 1,6 UV-I 434 W/m 7,7 km/h (2 Bft)
26.04.2014 11:54 16,4 C 17,2 C 74 % 1011,7 hPa 0,0 l/m 2 min 0 min 1,6 UV-I 446 W/m 10,3 km/h (2 Bft)
26.04.2014 11:56 16,4 C 17,8 C 74 % 1011,8 hPa 0,0 l/m 2 min 0 min 1,7 UV-I 446 W/m 5,1 km/h (1 Bft)
26.04.2014 11:58 16,2 C 17,8 C 73 % 1011,7 hPa 0,0 l/m 2 min 0 min 1,7 UV-I 441 W/m 10,3 km/h (2 Bft)
26.04.2014 12:00 16,2 C 17,8 C 73 % 1011,8 hPa 0,0 l/m 2 min 0 min 1,7 UV-I 439 W/m 10,3 km/h (2 Bft)
26.04.2014 12:02 16,3 C 17,8 C 75 % 1011,7 hPa 0,0 l/m 2 min 0 min 1,7 UV-I 457 W/m 10,3 km/h (2 Bft)
26.04.2014 12:06 16,3 C 17,8 C 72 % 1011,6 hPa 0,0 l/m 2 min 0 min 1,7 UV-I 427 W/m 12,9 km/h (3 Bft)
26.04.2014 12:08 16,3 C 17,8 C 73 % 1011,6 hPa 0,0 l/m 0 min 0 min 1,6 UV-I 404 W/m 0,0 km/h (0 Bft)
26.04.2014 12:10 16,2 C 17,8 C 72 % 1011,6 hPa 0,0 l/m 0 min 0 min 1,6 UV-I 394 W/m 0,0 km/h (0 Bft)
26.04.2014 12:12 16,1 C 17,8 C 73 % 1011,5 hPa 0,0 l/m 0 min 0 min 1,6 UV-I 394 W/m 2,6 km/h (1 Bft)
26.04.2014 12:14 16,3 C 17,8 C 75 % 1011,5 hPa 0,0 l/m 0 min 0 min 1,3 UV-I 362 W/m 0,0 km/h (0 Bft)
26.04.2014 12:16 16,4 C 17,8 C 74 % 1011,4 hPa 0,0 l/m 0 min 0 min 1,4 UV-I 353 W/m 7,7 km/h (2 Bft)
26.04.2014 12:18 16,3 C 17,2 C 72 % 1011,5 hPa 0,0 l/m 0 min 0 min 1,5 UV-I 380 W/m 5,1 km/h (1 Bft)
26.04.2014 12:20 16,2 C 17,2 C 71 % 1011,4 hPa 0,0 l/m 0 min 0 min 1,5 UV-I 397 W/m 0,0 km/h (0 Bft)
26.04.2014 12:22 16,3 C 17,2 C 72 % 1011,4 hPa 0,0 l/m 0 min 0 min 1,6 UV-I 401 W/m 7,7 km/h (2 Bft)
26.04.2014 12:24 16,5 C 17,2 C 72 % 1011,4 hPa 0,0 l/m 2 min 0 min 1,7 UV-I 425 W/m 0,0 km/h (0 Bft)
26.04.2014 12:26 16,5 C 17,8 C 70 % 1011,4 hPa 0,0 l/m 2 min 0 min 1,9 UV-I 468 W/m 0,0 km/h (0 Bft)
26.04.2014 12:28 16,6 C 17,8 C 70 % 1011,4 hPa 0,0 l/m 2 min 0 min 1,8 UV-I 466 W/m 2,6 km/h (1 Bft)
26.04.2014 12:30 16,7 C 17,8 C 70 % 1011,3 hPa 0,0 l/m 2 min 0 min 1,9 UV-I 436 W/m 5,1 km/h (1 Bft)
26.04.2014 12:32 16,8 C 17,8 C 70 % 1011,3 hPa 0,0 l/m 2 min 0 min 1,9 UV-I 455 W/m 7,7 km/h (2 Bft)
26.04.2014 12:34 16,8 C 17,8 C 71 % 1011,3 hPa 0,0 l/m 2 min 0 min 2,0 UV-I 487 W/m 7,7 km/h (2 Bft)
26.04.2014 12:36 16,8 C 17,8 C 70 % 1011,2 hPa 0,0 l/m 2 min 0 min 2,1 UV-I 555 W/m 7,7 km/h (2 Bft)
26.04.2014 12:38 17,1 C 18,3 C 73 % 1011,3 hPa 0,0 l/m 2 min 0 min 2,2 UV-I 573 W/m 2,6 km/h (1 Bft)
26.04.2014 12:40 17,3 C 18,9 C 72 % 1011,3 hPa 0,0 l/m 2 min 0 min 2,4 UV-I 680 W/m 2,6 km/h (1 Bft)
26.04.2014 12:42 17,3 C 18,9 C 69 % 1011,3 hPa 0,0 l/m 2 min 0 min 2,4 UV-I 540 W/m 12,9 km/h (3 Bft)
26.04.2014 12:44 17,1 C 18,3 C 69 % 1011,2 hPa 0,0 l/m 2 min 0 min 2,3 UV-I 571 W/m 7,7 km/h (2 Bft)
26.04.2014 12:46 17,1 C 18,3 C 69 % 1011,2 hPa 0,0 l/m 2 min 0 min 2,3 UV-I 603 W/m 7,7 km/h (2 Bft)
26.04.2014 12:48 17,2 C 18,3 C 70 % 1011,2 hPa 0,0 l/m 2 min 0 min 2,2 UV-I 483 W/m 18,0 km/h (3 Bft)
26.04.2014 12:50 17,4 C 18,3 C 70 % 1011,1 hPa 0,0 l/m 2 min 0 min 1,9 UV-I 462 W/m 10,3 km/h (2 Bft)
26.04.2014 12:52 17,4 C 18,3 C 69 % 1011,1 hPa 0,0 l/m 0 min 0 min 1,8 UV-I 417 W/m 10,3 km/h (2 Bft)
26.04.2014 12:54 17,3 C 18,3 C 68 % 1011,1 hPa 0,0 l/m 0 min 0 min 1,8 UV-I 404 W/m 12,9 km/h (3 Bft)
26.04.2014 12:56 17,3 C 18,3 C 69 % 1011,1 hPa 0,0 l/m 2 min 0 min 1,9 UV-I 475 W/m 0,0 km/h (0 Bft)
26.04.2014 12:58 17,2 C 18,3 C 68 % 1011,1 hPa 0,0 l/m 2 min 0 min 2,0 UV-I 494 W/m 10,3 km/h (2 Bft)
26.04.2014 13:00 17,2 C 18,3 C 70 % 1011,1 hPa 0,0 l/m 2 min 0 min 2,0 UV-I 526 W/m 7,7 km/h (2 Bft)
26.04.2014 13:02 17,2 C 18,3 C 69 % 1011,1 hPa 0,0 l/m 2 min 0 min 2,0 UV-I 454 W/m 5,1 km/h (1 Bft)
26.04.2014 13:06 17,4 C 18,3 C 69 % 1011,0 hPa 0,0 l/m 2 min 0 min 1,9 UV-I 445 W/m 7,7 km/h (2 Bft)
26.04.2014 13:08 17,4 C 18,3 C 69 % 1011,0 hPa 0,0 l/m 2 min 0 min 2,0 UV-I 812 W/m 10,3 km/h (2 Bft)
26.04.2014 13:10 17,5 C 18,3 C 69 % 1011,0 hPa 0,0 l/m 2 min 0 min 2,0 UV-I 812 W/m 2,6 km/h (1 Bft)
26.04.2014 13:12 17,4 C 18,3 C 67 % 1010,9 hPa 0,0 l/m 2 min 0 min 2,0 UV-I 812 W/m 12,9 km/h (3 Bft)
26.04.2014 13:14 17,6 C 18,3 C 69 % 1010,9 hPa 0,0 l/m 2 min 0 min 2,2 UV-I 916 W/m 12,9 km/h (3 Bft)
26.04.2014 13:16 17,7 C 18,3 C 69 % 1010,9 hPa 0,0 l/m 2 min 0 min 2,2 UV-I 886 W/m 5,1 km/h (1 Bft)
26.04.2014 13:18 18,1 C 18,9 C 68 % 1010,9 hPa 0,0 l/m 2 min 0 min 2,1 UV-I 886 W/m 12,9 km/h (3 Bft)
26.04.2014 13:20 18,3 C 18,9 C 68 % 1010,9 hPa 0,0 l/m 2 min 0 min 2,1 UV-I 886 W/m 12,9 km/h (3 Bft)
26.04.2014 13:22 18,6 C 18,9 C 67 % 1010,9 hPa 0,0 l/m 2 min 0 min 2,1 UV-I 886 W/m 10,3 km/h (2 Bft)
26.04.2014 13:24 18,3 C 18,3 C 64 % 1010,9 hPa 0,0 l/m 2 min 0 min 1,9 UV-I 584 W/m 0,0 km/h (0 Bft)
26.04.2014 13:26 18,1 C 18,3 C 64 % 1010,8 hPa 0,0 l/m 0 min 0 min 1,9 UV-I 322 W/m 0,0 km/h (0 Bft)
26.04.2014 13:28 18,1 C 18,3 C 66 % 1010,9 hPa 0,0 l/m 0 min 0 min 2,0 UV-I 322 W/m 7,7 km/h (2 Bft)
26.04.2014 13:30 18,3 C 18,9 C 66 % 1010,9 hPa 0,0 l/m 2 min 0 min 2,2 UV-I 951 W/m 10,3 km/h (2 Bft)
26.04.2014 13:32 18,4 C 18,9 C 64 % 1010,8 hPa 0,0 l/m 2 min 0 min 2,2 UV-I 951 W/m 15,4 km/h (3 Bft)
26.04.2014 13:34 18,4 C 18,3 C 65 % 1010,8 hPa 0,0 l/m 2 min 0 min 2,2 UV-I 951 W/m 10,3 km/h (2 Bft)
26.04.2014 13:36 18,5 C 18,9 C 64 % 1010,8 hPa 0,0 l/m 2 min 0 min 2,2 UV-I 830 W/m 10,3 km/h (2 Bft)
26.04.2014 13:38 18,4 C 18,3 C 64 % 1010,8 hPa 0,0 l/m 2 min 0 min 2,2 UV-I 816 W/m 12,9 km/h (3 Bft)
26.04.2014 13:40 18,3 C 18,3 C 64 % 1010,7 hPa 0,0 l/m 2 min 0 min 2,0 UV-I 816 W/m 7,7 km/h (2 Bft)
26.04.2014 13:42 18,3 C 18,3 C 66 % 1010,7 hPa 0,0 l/m 2 min 0 min 2,1 UV-I 831 W/m 20,6 km/h (4 Bft)
26.04.2014 13:44 18,6 C 18,9 C 67 % 1010,7 hPa 0,0 l/m 2 min 0 min 2,6 UV-I 902 W/m 15,4 km/h (3 Bft)
26.04.2014 13:46 18,8 C 18,9 C 63 % 1010,7 hPa 0,0 l/m 2 min 0 min 2,1 UV-I 902 W/m 15,4 km/h (3 Bft)
26.04.2014 13:48 18,8 C 18,9 C 64 % 1010,8 hPa 0,0 l/m 0 min 0 min 2,2 UV-I 394 W/m 12,9 km/h (3 Bft)
26.04.2014 13:50 18,5 C 18,9 C 62 % 1010,7 hPa 0,0 l/m 0 min 0 min 2,1 UV-I 425 W/m 2,6 km/h (1 Bft)
26.04.2014 13:52 18,1 C 18,3 C 62 % 1010,7 hPa 0,0 l/m 0 min 0 min 2,2 UV-I 427 W/m 10,3 km/h (2 Bft)
26.04.2014 13:54 17,7 C 18,3 C 63 % 1010,7 hPa 0,0 l/m 2 min 0 min 2,2 UV-I 473 W/m 7,7 km/h (2 Bft)
26.04.2014 13:56 17,8 C 18,3 C 64 % 1010,6 hPa 0,0 l/m 2 min 0 min 2,0 UV-I 443 W/m 15,4 km/h (3 Bft)
26.04.2014 13:58 17,9 C 18,9 C 66 % 1010,6 hPa 0,0 l/m 2 min 0 min 2,1 UV-I 441 W/m 5,1 km/h (1 Bft)
26.04.2014 14:00 18,1 C 18,9 C 65 % 1010,5 hPa 0,0 l/m 2 min 0 min 2,0 UV-I 450 W/m 12,9 km/h (3 Bft)
26.04.2014 14:03 18,2 C 18,9 C 66 % 1010,4 hPa 0,0 l/m 2 min 0 min 2,2 UV-I 504 W/m 10,3 km/h (2 Bft)
26.04.2014 14:04 18,3 C 18,9 C 66 % 1010,4 hPa 0,0 l/m 1 min 0 min 2,4 UV-I 504 W/m 10,3 km/h (2 Bft)
26.04.2014 14:06 18,7 C 19,4 C 65 % 1010,4 hPa 0,0 l/m 2 min 0 min 2,2 UV-I 534 W/m 18,0 km/h (3 Bft)
26.04.2014 14:08 18,7 C 19,4 C 63 % 1010,4 hPa 0,0 l/m 2 min 0 min 1,7 UV-I 552 W/m 12,9 km/h (3 Bft)
26.04.2014 14:10 18,8 C 19,4 C 66 % 1010,4 hPa 0,0 l/m 0 min 0 min 1,6 UV-I 378 W/m 10,3 km/h (2 Bft)
26.04.2014 14:12 18,8 C 19,4 C 63 % 1010,3 hPa 0,0 l/m 0 min 0 min 1,6 UV-I 413 W/m 18,0 km/h (3 Bft)
26.04.2014 14:14 18,7 C 18,9 C 63 % 1010,3 hPa 0,0 l/m 0 min 0 min 1,6 UV-I 388 W/m 10,3 km/h (2 Bft)
26.04.2014 14:16 18,6 C 18,9 C 63 % 1010,4 hPa 0,0 l/m 0 min 0 min 1,7 UV-I 408 W/m 15,4 km/h (3 Bft)
26.04.2014 14:18 18,5 C 18,9 C 63 % 1010,3 hPa 0,0 l/m 0 min 0 min 1,6 UV-I 392 W/m 12,9 km/h (3 Bft)
26.04.2014 14:20 18,6 C 18,9 C 65 % 1010,3 hPa 0,0 l/m 0 min 0 min 1,6 UV-I 383 W/m 7,7 km/h (2 Bft)
26.04.2014 14:22 18,6 C 18,9 C 63 % 1010,3 hPa 0,0 l/m 0 min 0 min 1,6 UV-I 397 W/m 7,7 km/h (2 Bft)
26.04.2014 14:24 18,5 C 18,9 C 63 % 1010,2 hPa 0,0 l/m 2 min 0 min 2,3 UV-I 434 W/m 0,0 km/h (0 Bft)
26.04.2014 14:26 18,7 C 20,0 C 66 % 1010,2 hPa 0,0 l/m 2 min 0 min 3,3 UV-I 967 W/m 10,3 km/h (2 Bft)
26.04.2014 14:28 19,2 C 20,6 C 65 % 1010,2 hPa 0,0 l/m 2 min 0 min 3,5 UV-I 1005 W/m 5,1 km/h (1 Bft)
26.04.2014 14:30 19,3 C 20,6 C 62 % 1010,2 hPa 0,0 l/m 2 min 0 min 3,5 UV-I 956 W/m 10,3 km/h (2 Bft)
26.04.2014 14:32 19,6 C 21,1 C 62 % 1010,2 hPa 0,0 l/m 2 min 0 min 3,5 UV-I 949 W/m 2,6 km/h (1 Bft)
26.04.2014 14:34 20,1 C 21,1 C 60 % 1010,1 hPa 0,0 l/m 2 min 0 min 3,4 UV-I 935 W/m 10,3 km/h (2 Bft)
26.04.2014 14:36 20,3 C 21,1 C 60 % 1010,0 hPa 0,0 l/m 2 min 0 min 2,2 UV-I 935 W/m 15,4 km/h (3 Bft)
26.04.2014 14:38 20,2 C 21,1 C 59 % 1010,0 hPa 0,0 l/m 2 min 0 min 2,6 UV-I 510 W/m 12,9 km/h (3 Bft)
26.04.2014 14:40 19,9 C 20,6 C 59 % 1010,0 hPa 0,0 l/m 2 min 0 min 3,0 UV-I 520 W/m 10,3 km/h (2 Bft)
26.04.2014 14:42 19,8 C 20,6 C 58 % 1009,9 hPa 0,0 l/m 2 min 0 min 2,5 UV-I 840 W/m 5,1 km/h (1 Bft)
26.04.2014 14:44 19,6 C 20,6 C 58 % 1009,9 hPa 0,0 l/m 2 min 0 min 1,9 UV-I 840 W/m 18,0 km/h (3 Bft)
26.04.2014 14:46 19,5 C 20,0 C 60 % 1009,9 hPa 0,0 l/m 2 min 0 min 2,1 UV-I 596 W/m 18,0 km/h (3 Bft)
26.04.2014 14:48 19,5 C 20,0 C 60 % 1009,9 hPa 0,0 l/m 2 min 0 min 2,3 UV-I 596 W/m 2,6 km/h (1 Bft)
26.04.2014 14:50 19,8 C 20,0 C 61 % 1009,9 hPa 0,0 l/m 2 min 0 min 2,1 UV-I 596 W/m 10,3 km/h (2 Bft)
26.04.2014 14:52 19,8 C 20,0 C 59 % 1009,8 hPa 0,0 l/m 0 min 0 min 1,5 UV-I 338 W/m 10,3 km/h (2 Bft)
26.04.2014 14:54 19,7 C 20,0 C 61 % 1009,9 hPa 0,0 l/m 0 min 0 min 1,4 UV-I 316 W/m 7,7 km/h (2 Bft)
26.04.2014 14:56 19,6 C 20,0 C 60 % 1009,8 hPa 0,0 l/m 0 min 0 min 1,3 UV-I 301 W/m 7,7 km/h (2 Bft)
26.04.2014 14:58 19,3 C 19,4 C 61 % 1009,8 hPa 0,0 l/m 0 min 0 min 1,3 UV-I 299 W/m 12,9 km/h (3 Bft)
26.04.2014 15:00 19,2 C 19,4 C 61 % 1009,9 hPa 0,0 l/m 0 min 0 min 1,3 UV-I 318 W/m 10,3 km/h (2 Bft)
26.04.2014 15:02 18,8 C 18,9 C 60 % 1009,7 hPa 0,0 l/m 0 min 0 min 1,3 UV-I 320 W/m 2,6 km/h (1 Bft)
26.04.2014 15:06 18,5 C 18,9 C 63 % 1009,7 hPa 0,0 l/m 0 min 0 min 1,3 UV-I 346 W/m 0,0 km/h (0 Bft)
26.04.2014 15:08 18,9 C 19,4 C 63 % 1009,6 hPa 0,0 l/m 0 min 0 min 1,3 UV-I 352 W/m 7,7 km/h (2 Bft)
26.04.2014 15:10 19,2 C 19,4 C 62 % 1009,6 hPa 0,0 l/m 2 min 0 min 2,1 UV-I 664 W/m 10,3 km/h (2 Bft)
26.04.2014 15:12 19,3 C 20,0 C 61 % 1009,6 hPa 0,0 l/m 0 min 0 min 1,4 UV-I 350 W/m 10,3 km/h (2 Bft)
26.04.2014 15:14 19,4 C 20,0 C 60 % 1009,5 hPa 0,0 l/m 0 min 0 min 1,3 UV-I 295 W/m 0,0 km/h (0 Bft)
26.04.2014 15:16 19,3 C 19,4 C 58 % 1009,5 hPa 0,0 l/m 0 min 0 min 1,2 UV-I 304 W/m 7,7 km/h (2 Bft)
26.04.2014 15:18 19,2 C 19,4 C 60 % 1009,5 hPa 0,0 l/m 0 min 0 min 1,2 UV-I 309 W/m 2,6 km/h (1 Bft)
26.04.2014 15:20 19,0 C 18,9 C 58 % 1009,5 hPa 0,0 l/m 0 min 0 min 1,2 UV-I 341 W/m 0,0 km/h (0 Bft)
26.04.2014 15:22 18,8 C 18,9 C 60 % 1009,4 hPa 0,0 l/m 0 min 0 min 1,3 UV-I 360 W/m 7,7 km/h (2 Bft)
26.04.2014 15:24 18,8 C 19,4 C 61 % 1009,4 hPa 0,0 l/m 0 min 0 min 2,0 UV-I 388 W/m 7,7 km/h (2 Bft)
26.04.2014 15:26 19,0 C 19,4 C 61 % 1009,4 hPa 0,0 l/m 0 min 0 min 1,4 UV-I 350 W/m 5,1 km/h (1 Bft)
26.04.2014 15:28 19,0 C 19,4 C 60 % 1009,4 hPa 0,0 l/m 0 min 0 min 1,2 UV-I 329 W/m 10,3 km/h (2 Bft)
26.04.2014 15:30 18,8 C 18,9 C 60 % 1009,4 hPa 0,0 l/m 0 min 0 min 1,2 UV-I 329 W/m 10,3 km/h (2 Bft)
26.04.2014 15:32 18,8 C 19,4 C 61 % 1009,4 hPa 0,0 l/m 0 min 0 min 1,3 UV-I 350 W/m 12,9 km/h (3 Bft)
26.04.2014 15:34 18,9 C 18,9 C 61 % 1009,4 hPa 0,0 l/m 0 min 0 min 1,1 UV-I 320 W/m 10,3 km/h (2 Bft)
26.04.2014 15:36 18,8 C 18,9 C 59 % 1009,4 hPa 0,0 l/m 0 min 0 min 1,1 UV-I 323 W/m 7,7 km/h (2 Bft)
26.04.2014 15:38 18,8 C 18,9 C 61 % 1009,3 hPa 0,0 l/m 0 min 0 min 1,1 UV-I 302 W/m 0,0 km/h (0 Bft)
26.04.2014 15:40 18,6 C 18,9 C 60 % 1009,2 hPa 0,0 l/m 0 min 0 min 1,0 UV-I 283 W/m 0,0 km/h (0 Bft)
26.04.2014 15:42 18,4 C 18,9 C 59 % 1009,2 hPa 0,0 l/m 0 min 0 min 1,0 UV-I 285 W/m 0,0 km/h (0 Bft)
26.04.2014 15:44 18,5 C 18,9 C 61 % 1009,2 hPa 0,0 l/m 0 min 0 min 1,0 UV-I 290 W/m 2,6 km/h (1 Bft)
26.04.2014 15:46 18,6 C 18,9 C 61 % 1009,2 hPa 0,0 l/m 0 min 0 min 1,0 UV-I 258 W/m 0,0 km/h (0 Bft)
26.04.2014 15:48 18,5 C 18,9 C 61 % 1009,2 hPa 0,0 l/m 0 min 0 min 0,9 UV-I 258 W/m 2,6 km/h (1 Bft)
26.04.2014 15:50 18,4 C 18,3 C 60 % 1009,2 hPa 0,0 l/m 0 min 0 min 0,8 UV-I 206 W/m 7,7 km/h (2 Bft)
26.04.2014 15:52 18,3 C 18,3 C 61 % 1009,2 hPa 0,0 l/m 0 min 0 min 0,6 UV-I 197 W/m 0,0 km/h (0 Bft)
26.04.2014 15:54 18,2 C 18,3 C 61 % 1009,2 hPa 0,0 l/m 0 min 0 min 0,5 UV-I 197 W/m 5,1 km/h (1 Bft)
26.04.2014 15:56 18,2 C 18,3 C 61 % 1009,1 hPa 0,0 l/m 0 min 0 min 0,5 UV-I 192 W/m 7,7 km/h (2 Bft)
26.04.2014 15:58 18,2 C 18,3 C 61 % 1009,1 hPa 0,0 l/m 0 min 0 min 0,0 UV-I 169 W/m 5,1 km/h (1 Bft)
26.04.2014 16:00 18,2 C 17,8 C 61 % 1009,1 hPa 0,0 l/m 0 min 0 min 0,0 UV-I 148 W/m 0,0 km/h (0 Bft)
26.04.2014 16:02 18,2 C 17,8 C 62 % 1009,1 hPa 0,0 l/m 0 min 0 min 0,0 UV-I 135 W/m 0,0 km/h (0 Bft)
26.04.2014 16:06 18,2 C 17,8 C 65 % 1009,1 hPa 0,0 l/m 0 min 0 min 0,0 UV-I 146 W/m 2,6 km/h (1 Bft)
26.04.2014 16:08 18,3 C 17,8 C 63 % 1009,0 hPa 0,0 l/m 0 min 0 min 0,0 UV-I 151 W/m 0,0 km/h (0 Bft)
26.04.2014 16:10 18,3 C 17,8 C 62 % 1009,0 hPa 0,0 l/m 0 min 0 min 0,0 UV-I 144 W/m 0,0 km/h (0 Bft)
26.04.2014 16:12 18,2 C 17,8 C 62 % 1009,0 hPa 0,0 l/m 0 min 0 min 0,0 UV-I 130 W/m 0,0 km/h (0 Bft)
26.04.2014 16:14 18,2 C 17,8 C 63 % 1009,0 hPa 0,0 l/m 0 min 0 min 0,0 UV-I 118 W/m 0,0 km/h (0 Bft)
26.04.2014 16:16 18,1 C 17,2 C 60 % 1009,0 hPa 0,0 l/m 0 min 0 min 0,0 UV-I 116 W/m 0,0 km/h (0 Bft)
26.04.2014 16:18 17,9 C 17,2 C 60 % 1009,0 hPa 0,0 l/m 0 min 0 min 0,0 UV-I 107 W/m 0,0 km/h (0 Bft)
26.04.2014 16:20 17,8 C 17,2 C 61 % 1009,0 hPa 0,0 l/m 0 min 0 min 0,0 UV-I 102 W/m 0,0 km/h (0 Bft)
26.04.2014 16:22 17,8 C 17,2 C 63 % 1008,9 hPa 0,0 l/m 0 min 0 min 0,0 UV-I 98 W/m 0,0 km/h (0 Bft)
26.04.2014 16:24 17,8 C 17,2 C 64 % 1008,9 hPa 0,0 l/m 0 min 0 min 0,0 UV-I 98 W/m 0,0 km/h (0 Bft)
26.04.2014 16:26 17,8 C 16,7 C 62 % 1009,0 hPa 0,0 l/m 0 min 0 min 0,0 UV-I 109 W/m 0,0 km/h (0 Bft)
26.04.2014 16:28 17,9 C 16,7 C 63 % 1008,9 hPa 0,0 l/m 0 min 0 min 0,0 UV-I 128 W/m 0,0 km/h (0 Bft)
26.04.2014 16:30 17,9 C 17,2 C 63 % 1008,9 hPa 0,0 l/m 0 min 0 min 0,0 UV-I 149 W/m 2,6 km/h (1 Bft)
26.04.2014 16:32 17,9 C 17,2 C 62 % 1008,8 hPa 0,0 l/m 0 min 0 min 0,0 UV-I 178 W/m 7,7 km/h (2 Bft)
26.04.2014 16:34 18,1 C 17,2 C 63 % 1008,9 hPa 0,0 l/m 0 min 0 min 0,0 UV-I 206 W/m 5,1 km/h (1 Bft)
26.04.2014 16:36 18,2 C 17,8 C 62 % 1008,8 hPa 0,0 l/m 0 min 0 min 0,5 UV-I 287 W/m 7,7 km/h (2 Bft)
26.04.2014 16:38 18,3 C 18,3 C 62 % 1008,8 hPa 0,0 l/m 0 min 0 min 0,7 UV-I 295 W/m 7,7 km/h (2 Bft)
26.04.2014 16:40 18,4 C 18,3 C 62 % 1008,8 hPa 0,0 l/m 0 min 0 min 0,6 UV-I 309 W/m 2,6 km/h (1 Bft)
26.04.2014 16:42 18,7 C 18,9 C 61 % 1008,8 hPa 0,0 l/m 0 min 0 min 0,6 UV-I 255 W/m 0,0 km/h (0 Bft)
26.04.2014 16:44 18,8 C 18,9 C 61 % 1008,8 hPa 0,0 l/m 0 min 0 min 0,5 UV-I 229 W/m 0,0 km/h (0 Bft)
26.04.2014 16:46 18,8 C 18,9 C 62 % 1008,8 hPa 0,0 l/m 0 min 0 min 0,5 UV-I 221 W/m 0,0 km/h (0 Bft)
26.04.2014 16:48 18,7 C 18,9 C 59 % 1008,8 hPa 0,0 l/m 0 min 0 min 0,6 UV-I 269 W/m 0,0 km/h (0 Bft)
26.04.2014 16:50 18,5 C 18,3 C 60 % 1008,9 hPa 0,0 l/m 0 min 0 min 0,5 UV-I 244 W/m 0,0 km/h (0 Bft)
26.04.2014 16:52 18,6 C 18,3 C 60 % 1008,8 hPa 0,0 l/m 0 min 0 min 0,5 UV-I 309 W/m 0,0 km/h (0 Bft)
26.04.2014 16:54 18,7 C 18,3 C 62 % 1008,8 hPa 0,0 l/m 0 min 0 min 0,5 UV-I 213 W/m 0,0 km/h (0 Bft)
26.04.2014 16:56 18,7 C 18,3 C 61 % 1008,8 hPa 0,0 l/m 0 min 0 min 0,0 UV-I 174 W/m 0,0 km/h (0 Bft)
26.04.2014 16:58 18,8 C 18,3 C 60 % 1008,8 hPa 0,0 l/m 0 min 0 min 0,0 UV-I 155 W/m 0,0 km/h (0 Bft)
26.04.2014 17:00 18,7 C 18,3 C 61 % 1008,8 hPa 0,0 l/m 0 min 0 min 0,0 UV-I 142 W/m 2,6 km/h (1 Bft)
26.04.2014 17:02 18,6 C 18,3 C 61 % 1008,8 hPa 0,0 l/m 0 min 0 min 0,0 UV-I 141 W/m 10,3 km/h (2 Bft)
26.04.2014 17:06 18,4 C 17,8 C 62 % 1008,7 hPa 0,0 l/m 0 min 0 min 0,0 UV-I 132 W/m 0,0 km/h (0 Bft)
26.04.2014 17:08 18,4 C 17,8 C 61 % 1008,7 hPa 0,0 l/m 0 min 0 min 0,0 UV-I 125 W/m 10,3 km/h (2 Bft)
26.04.2014 17:10 18,3 C 17,8 C 61 % 1008,7 hPa 0,0 l/m 0 min 0 min 0,0 UV-I 118 W/m 10,3 km/h (2 Bft)
26.04.2014 17:12 18,2 C 17,8 C 63 % 1008,7 hPa 0,0 l/m 0 min 0 min 0,0 UV-I 109 W/m 5,1 km/h (1 Bft)
26.04.2014 17:14 18,2 C 17,2 C 63 % 1008,7 hPa 0,0 l/m 0 min 0 min 0,0 UV-I 102 W/m 5,1 km/h (1 Bft)
26.04.2014 17:16 18,2 C 17,2 C 62 % 1008,7 hPa 0,0 l/m 0 min 0 min 0,0 UV-I 91 W/m 2,6 km/h (1 Bft)
26.04.2014 17:18 18,1 C 17,2 C 62 % 1008,6 hPa 0,0 l/m 0 min 0 min 0,0 UV-I 77 W/m 0,0 km/h (0 Bft)
26.04.2014 17:20 18,1 C 17,2 C 61 % 1008,6 hPa 0,0 l/m 0 min 0 min 0,0 UV-I 70 W/m 2,6 km/h (1 Bft)
26.04.2014 17:22 18,0 C 16,7 C 62 % 1008,6 hPa 0,0 l/m 0 min 0 min 0,0 UV-I 63 W/m 0,0 km/h (0 Bft)
26.04.2014 17:24 17,9 C 16,7 C 62 % 1008,6 hPa 0,0 l/m 0 min 0 min 0,0 UV-I 54 W/m 0,0 km/h (0 Bft)
26.04.2014 17:26 17,9 C 16,7 C 62 % 1008,6 hPa 0,0 l/m 0 min 0 min 0,0 UV-I 51 W/m 0,0 km/h (0 Bft)
26.04.2014 17:28 17,8 C 16,7 C 63 % 1008,6 hPa 0,0 l/m 0 min 0 min 0,0 UV-I 49 W/m 2,6 km/h (1 Bft)
26.04.2014 17:30 17,8 C 16,7 C 63 % 1008,6 hPa 0,0 l/m 0 min 0 min 0,0 UV-I 47 W/m 0,0 km/h (0 Bft)
26.04.2014 17:32 17,7 C 16,7 C 63 % 1008,5 hPa 0,0 l/m 0 min 0 min 0,0 UV-I 47 W/m 2,6 km/h (1 Bft)
26.04.2014 17:34 17,7 C 16,7 C 62 % 1008,5 hPa 0,0 l/m 0 min 0 min 0,0 UV-I 46 W/m 0,0 km/h (0 Bft)
26.04.2014 17:36 17,7 C 16,1 C 63 % 1008,6 hPa 0,0 l/m 0 min 0 min 0,0 UV-I 44 W/m 0,0 km/h (0 Bft)
26.04.2014 17:38 17,6 C 16,1 C 64 % 1008,6 hPa 0,0 l/m 0 min 0 min 0,0 UV-I 44 W/m 0,0 km/h (0 Bft)
26.04.2014 17:40 17,6 C 16,1 C 65 % 1008,5 hPa 0,0 l/m 0 min 0 min 0,0 UV-I 46 W/m 0,0 km/h (0 Bft)
26.04.2014 17:42 17,6 C 16,1 C 64 % 1008,5 hPa 0,0 l/m 0 min 0 min 0,0 UV-I 44 W/m 0,0 km/h (0 Bft)
26.04.2014 17:44 17,6 C 16,1 C 64 % 1008,5 hPa 0,0 l/m 0 min 0 min 0,0 UV-I 42 W/m 2,6 km/h (1 Bft)
26.04.2014 17:46 17,5 C 16,1 C 65 % 1008,5 hPa 0,0 l/m 0 min 0 min 0,0 UV-I 40 W/m 0,0 km/h (0 Bft)
26.04.2014 17:48 17,5 C 16,1 C 64 % 1008,4 hPa 0,0 l/m 0 min 0 min 0,0 UV-I 39 W/m 0,0 km/h (0 Bft)
26.04.2014 17:50 17,4 C 16,1 C 65 % 1008,5 hPa 0,0 l/m 0 min 0 min 0,0 UV-I 37 W/m 0,0 km/h (0 Bft)
26.04.2014 17:52 17,4 C 16,1 C 64 % 1008,4 hPa 0,0 l/m 0 min 0 min 0,0 UV-I 35 W/m 0,0 km/h (0 Bft)
26.04.2014 17:54 17,4 C 16,1 C 64 % 1008,4 hPa 0,0 l/m 0 min 0 min 0,0 UV-I 32 W/m 0,0 km/h (0 Bft)
26.04.2014 17:56 17,4 C 15,6 C 65 % 1008,5 hPa 0,0 l/m 0 min 0 min 0,0 UV-I 30 W/m 0,0 km/h (0 Bft)
26.04.2014 17:58 17,4 C 15,6 C 65 % 1008,4 hPa 0,0 l/m 0 min 0 min 0,0 UV-I 28 W/m 0,0 km/h (0 Bft)
26.04.2014 18:00 17,4 C 15,6 C 65 % 1008,5 hPa 0,0 l/m 0 min 0 min 0,0 UV-I 28 W/m 0,0 km/h (0 Bft)
26.04.2014 18:02 17,4 C 15,6 C 65 % 1008,4 hPa 0,0 l/m 0 min 0 min 0,0 UV-I 28 W/m 0,0 km/h (0 Bft)
26.04.2014 18:06 17,3 C 15,6 C 65 % 1008,3 hPa 0,0 l/m 0 min 0 min 0,0 UV-I 26 W/m 0,0 km/h (0 Bft)
26.04.2014 18:08 17,3 C 15,6 C 66 % 1008,3 hPa 0,0 l/m 0 min 0 min 0,0 UV-I 26 W/m 0,0 km/h (0 Bft)
26.04.2014 18:10 17,3 C 15,6 C 67 % 1008,4 hPa 0,0 l/m 0 min 0 min 0,0 UV-I 25 W/m 0,0 km/h (0 Bft)
26.04.2014 18:12 17,3 C 15,0 C 66 % 1008,3 hPa 0,0 l/m 0 min 0 min 0,0 UV-I 25 W/m 0,0 km/h (0 Bft)
26.04.2014 18:14 17,3 C 15,0 C 66 % 1008,4 hPa 0,0 l/m 0 min 0 min 0,0 UV-I 25 W/m 0,0 km/h (0 Bft)
26.04.2014 18:16 17,3 C 15,0 C 66 % 1008,3 hPa 0,0 l/m 0 min 0 min 0,0 UV-I 25 W/m 0,0 km/h (0 Bft)
26.04.2014 18:18 17,3 C 15,0 C 67 % 1008,3 hPa 0,0 l/m 0 min 0 min 0,0 UV-I 25 W/m 0,0 km/h (0 Bft)
26.04.2014 18:20 17,3 C 15,0 C 66 % 1008,3 hPa 0,0 l/m 0 min 0 min 0,0 UV-I 25 W/m 0,0 km/h (0 Bft)
26.04.2014 18:22 17,2 C 15,0 C 65 % 1008,3 hPa 0,0 l/m 0 min 0 min 0,0 UV-I 26 W/m 0,0 km/h (0 Bft)
26.04.2014 18:24 17,2 C 15,0 C 66 % 1008,3 hPa 0,0 l/m 0 min 0 min 0,0 UV-I 30 W/m 0,0 km/h (0 Bft)
26.04.2014 18:26 17,2 C 15,0 C 68 % 1008,2 hPa 0,0 l/m 0 min 0 min 0,0 UV-I 30 W/m 0,0 km/h (0 Bft)
26.04.2014 18:28 17,2 C 15,0 C 67 % 1008,3 hPa 0,0 l/m 0 min 0 min 0,0 UV-I 32 W/m 0,0 km/h (0 Bft)
26.04.2014 18:30 17,2 C 15,0 C 67 % 1008,2 hPa 0,0 l/m 0 min 0 min 0,0 UV-I 32 W/m 0,0 km/h (0 Bft)
26.04.2014 18:32 17,1 C 15,0 C 68 % 1008,2 hPa 0,0 l/m 0 min 0 min 0,0 UV-I 32 W/m 0,0 km/h (0 Bft)
26.04.2014 18:34 17,1 C 15,0 C 67 % 1008,2 hPa 0,0 l/m 0 min 0 min 0,0 UV-I 30 W/m 0,0 km/h (0 Bft)
26.04.2014 18:36 17,1 C 15,0 C 65 % 1008,2 hPa 0,0 l/m 0 min 0 min 0,0 UV-I 30 W/m 0,0 km/h (0 Bft)
26.04.2014 18:38 17,2 C 15,0 C 66 % 1008,2 hPa 0,0 l/m 0 min 0 min 0,0 UV-I 30 W/m 0,0 km/h (0 Bft)
26.04.2014 18:40 17,1 C 15,0 C 66 % 1008,2 hPa 0,0 l/m 0 min 0 min 0,0 UV-I 28 W/m 0,0 km/h (0 Bft)
26.04.2014 18:42 17,2 C 15,0 C 66 % 1008,2 hPa 0,0 l/m 0 min 0 min 0,0 UV-I 28 W/m 0,0 km/h (0 Bft)
26.04.2014 18:44 17,2 C 15,0 C 66 % 1008,2 hPa 0,0 l/m 0 min 0 min 0,0 UV-I 28 W/m 0,0 km/h (0 Bft)
26.04.2014 18:46 17,2 C 15,0 C 67 % 1008,2 hPa 0,0 l/m 0 min 0 min 0,0 UV-I 28 W/m 0,0 km/h (0 Bft)
26.04.2014 18:48 17,2 C 15,0 C 67 % 1008,2 hPa 0,0 l/m 0 min 0 min 0,0 UV-I 26 W/m 0,0 km/h (0 Bft)
26.04.2014 18:50 17,1 C 15,0 C 68 % 1008,2 hPa 0,0 l/m 0 min 0 min 0,0 UV-I 26 W/m 0,0 km/h (0 Bft)
26.04.2014 18:52 17,1 C 15,0 C 67 % 1008,1 hPa 0,0 l/m 0 min 0 min 0,0 UV-I 25 W/m 0,0 km/h (0 Bft)
26.04.2014 18:54 17,1 C 15,0 C 68 % 1008,1 hPa 0,0 l/m 0 min 0 min 0,0 UV-I 25 W/m 0,0 km/h (0 Bft)
26.04.2014 18:56 17,1 C 15,0 C 67 % 1008,0 hPa 0,0 l/m 0 min 0 min 0,0 UV-I 23 W/m 0,0 km/h (0 Bft)
26.04.2014 18:58 17,0 C 15,0 C 67 % 1008,1 hPa 0,0 l/m 0 min 0 min 0,0 UV-I 21 W/m 0,0 km/h (0 Bft)
26.04.2014 19:00 17,0 C 15,0 C 67 % 1008,1 hPa 0,0 l/m 0 min 0 min 0,0 UV-I 21 W/m 0,0 km/h (0 Bft)
26.04.2014 19:02 17,0 C 15,0 C 67 % 1008,1 hPa 0,0 l/m 0 min 0 min 0,0 UV-I 19 W/m 0,0 km/h (0 Bft)
26.04.2014 19:06 16,9 C 15,0 C 69 % 1008,0 hPa 0,0 l/m 0 min 0 min 0,0 UV-I 18 W/m 0,0 km/h (0 Bft)
26.04.2014 19:08 16,8 C 15,0 C 70 % 1008,0 hPa 0,0 l/m 0 min 0 min 0,0 UV-I 18 W/m 0,0 km/h (0 Bft)
26.04.2014 19:10 16,7 C 14,4 C 71 % 1008,0 hPa 0,0 l/m 0 min 0 min 0,0 UV-I 16 W/m 0,0 km/h (0 Bft)
26.04.2014 19:12 16,7 C 14,4 C 72 % 1007,9 hPa 0,0 l/m 0 min 0 min 0,0 UV-I 16 W/m 0,0 km/h (0 Bft)
26.04.2014 19:14 16,6 C 14,4 C 72 % 1007,9 hPa 0,0 l/m 0 min 0 min 0,0 UV-I 16 W/m 0,0 km/h (0 Bft)
26.04.2014 19:16 16,6 C 14,4 C 73 % 1007,9 hPa 0,0 l/m 0 min 0 min 0,0 UV-I 16 W/m 0,0 km/h (0 Bft)
26.04.2014 19:18 16,6 C 14,4 C 72 % 1007,9 hPa 0,0 l/m 0 min 0 min 0,0 UV-I 18 W/m 0,0 km/h (0 Bft)
26.04.2014 19:20 16,6 C 14,4 C 72 % 1007,9 hPa 0,0 l/m 0 min 0 min 0,0 UV-I 18 W/m 0,0 km/h (0 Bft)
26.04.2014 19:22 16,6 C 14,4 C 72 % 1007,8 hPa 0,0 l/m 0 min 0 min 0,0 UV-I 19 W/m 0,0 km/h (0 Bft)
26.04.2014 19:24 16,6 C 14,4 C 71 % 1007,8 hPa 0,0 l/m 0 min 2 min 0,0 UV-I 19 W/m 0,0 km/h (0 Bft)
26.04.2014 19:26 16,6 C 14,4 C 71 % 1007,9 hPa 0,0 l/m 0 min 0 min 0,0 UV-I 21 W/m 0,0 km/h (0 Bft)
26.04.2014 19:28 16,6 C 14,4 C 71 % 1007,8 hPa 0,0 l/m 0 min 2 min 0,0 UV-I 21 W/m 0,0 km/h (0 Bft)
26.04.2014 19:30 16,6 C 14,4 C 72 % 1007,8 hPa 0,0 l/m 0 min 2 min 0,0 UV-I 21 W/m 0,0 km/h (0 Bft)
26.04.2014 19:32 16,6 C 14,4 C 73 % 1007,8 hPa 0,0 l/m 0 min 0 min 0,0 UV-I 21 W/m 0,0 km/h (0 Bft)
26.04.2014 19:34 16,5 C 14,4 C 74 % 1007,8 hPa 0,0 l/m 0 min 2 min 0,0 UV-I 19 W/m 0,0 km/h (0 Bft)
26.04.2014 19:36 16,4 C 14,4 C 75 % 1007,9 hPa 0,0 l/m 0 min 0 min 0,0 UV-I 19 W/m 0,0 km/h (0 Bft)
26.04.2014 19:38 16,4 C 14,4 C 74 % 1007,9 hPa 0,0 l/m 0 min 2 min 0,0 UV-I 19 W/m 0,0 km/h (0 Bft)
26.04.2014 19:40 16,3 C 13,9 C 75 % 1007,9 hPa 0,0 l/m 0 min 0 min 0,0 UV-I 19 W/m 0,0 km/h (0 Bft)
26.04.2014 19:42 16,3 C 13,9 C 75 % 1007,8 hPa 0,0 l/m 0 min 0 min 0,0 UV-I 19 W/m 0,0 km/h (0 Bft)
26.04.2014 19:44 16,3 C 13,9 C 75 % 1007,8 hPa 0,0 l/m 0 min 0 min 0,0 UV-I 18 W/m 0,0 km/h (0 Bft)
26.04.2014 19:46 16,3 C 13,9 C 75 % 1007,8 hPa 0,0 l/m 0 min 0 min 0,0 UV-I 18 W/m 0,0 km/h (0 Bft)
26.04.2014 19:48 16,3 C 13,9 C 75 % 1007,8 hPa 0,0 l/m 0 min 0 min 0,0 UV-I 16 W/m 0,0 km/h (0 Bft)
26.04.2014 19:50 16,2 C 13,9 C 76 % 1007,8 hPa 0,0 l/m 0 min 2 min 0,0 UV-I 14 W/m 0,0 km/h (0 Bft)
26.04.2014 19:52 16,2 C 13,9 C 76 % 1007,8 hPa 0,0 l/m 0 min 0 min 0,0 UV-I 14 W/m 0,0 km/h (0 Bft)
26.04.2014 19:54 16,2 C 13,9 C 77 % 1007,9 hPa 0,0 l/m 0 min 2 min 0,0 UV-I 12 W/m 0,0 km/h (0 Bft)
26.04.2014 19:56 16,2 C 13,9 C 77 % 1007,8 hPa 0,0 l/m 0 min 0 min 0,0 UV-I 12 W/m 0,0 km/h (0 Bft)
26.04.2014 19:58 16,1 C 13,9 C 78 % 1007,8 hPa 0,0 l/m 0 min 2 min 0,0 UV-I 11 W/m 0,0 km/h (0 Bft)
26.04.2014 20:00 16,1 C 13,9 C 78 % 1007,8 hPa 0,0 l/m 0 min 0 min 0,0 UV-I 11 W/m 0,0 km/h (0 Bft)
26.04.2014 20:02 16,0 C 13,9 C 79 % 1007,8 hPa 0,0 l/m 0 min 0 min 0,0 UV-I 9 W/m 0,0 km/h (0 Bft)
26.04.2014 20:06 15,8 C 13,9 C 79 % 1007,8 hPa 0,0 l/m 0 min 0 min 0,0 UV-I 7 W/m 0,0 km/h (0 Bft)
26.04.2014 20:08 15,8 C 13,9 C 79 % 1007,8 hPa 0,0 l/m 0 min 0 min 0,0 UV-I 7 W/m 0,0 km/h (0 Bft)
26.04.2014 20:10 15,7 C 13,9 C 78 % 1007,9 hPa 0,0 l/m 0 min 0 min 0,0 UV-I 5 W/m 0,0 km/h (0 Bft)
26.04.2014 20:12 15,7 C 13,9 C 77 % 1007,8 hPa 0,0 l/m 0 min 0 min 0,0 UV-I 5 W/m 0,0 km/h (0 Bft)
26.04.2014 20:14 15,7 C 13,9 C 79 % 1007,9 hPa 0,0 l/m 0 min 0 min 0,0 UV-I 5 W/m 0,0 km/h (0 Bft)
26.04.2014 20:16 15,7 C 13,9 C 77 % 1007,8 hPa 0,0 l/m 0 min 0 min 0,0 UV-I 5 W/m 0,0 km/h (0 Bft)
26.04.2014 20:18 15,6 C 13,9 C 77 % 1007,9 hPa 0,0 l/m 0 min 0 min 0,0 UV-I 0 W/m 0,0 km/h (0 Bft)
26.04.2014 20:20 15,6 C 13,9 C 76 % 1007,8 hPa 0,0 l/m 0 min 0 min 0,0 UV-I 0 W/m 0,0 km/h (0 Bft)
26.04.2014 20:22 15,6 C 13,9 C 77 % 1007,9 hPa 0,0 l/m 0 min 0 min 0,0 UV-I 0 W/m 0,0 km/h (0 Bft)
26.04.2014 20:24 15,6 C 13,3 C 75 % 1007,9 hPa 0,0 l/m 0 min 2 min 0,0 UV-I 0 W/m 0,0 km/h (0 Bft)
26.04.2014 20:26 15,6 C 13,3 C 76 % 1007,9 hPa 0,0 l/m 0 min 0 min 0,0 UV-I 0 W/m 0,0 km/h (0 Bft)
26.04.2014 20:28 15,6 C 13,3 C 76 % 1007,9 hPa 0,0 l/m 0 min 0 min 0,0 UV-I 0 W/m 0,0 km/h (0 Bft)
26.04.2014 20:30 15,6 C 13,3 C 76 % 1007,9 hPa 0,0 l/m 0 min 0 min 0,0 UV-I 0 W/m 0,0 km/h (0 Bft)
26.04.2014 20:32 15,6 C 13,3 C 76 % 1008,0 hPa 0,0 l/m 0 min 2 min 0,0 UV-I 0 W/m 0,0 km/h (0 Bft)
26.04.2014 20:34 15,5 C 13,3 C 77 % 1008,0 hPa 0,0 l/m 0 min 2 min 0,0 UV-I 0 W/m 0,0 km/h (0 Bft)
26.04.2014 20:36 15,4 C 12,8 C 77 % 1008,0 hPa 0,0 l/m 0 min 2 min 0,0 UV-I 0 W/m 0,0 km/h (0 Bft)
26.04.2014 20:38 15,4 C 12,8 C 77 % 1008,0 hPa 0,0 l/m 0 min 2 min 0,0 UV-I 0 W/m 0,0 km/h (0 Bft)
26.04.2014 20:40 15,4 C 12,8 C 77 % 1008,0 hPa 0,0 l/m 0 min 0 min 0,0 UV-I 0 W/m 0,0 km/h (0 Bft)
26.04.2014 20:42 15,3 C 12,8 C 77 % 1007,9 hPa 0,0 l/m 0 min 0 min 0,0 UV-I 0 W/m 0,0 km/h (0 Bft)
26.04.2014 20:44 15,3 C 12,8 C 76 % 1008,0 hPa 0,0 l/m 0 min 2 min 0,0 UV-I 0 W/m 0,0 km/h (0 Bft)
26.04.2014 20:46 15,3 C 12,8 C 75 % 1008,0 hPa 0,0 l/m 0 min 0 min 0,0 UV-I 0 W/m 0,0 km/h (0 Bft)
26.04.2014 20:48 15,3 C 12,8 C 75 % 1008,1 hPa 0,0 l/m 0 min 2 min 0,0 UV-I 0 W/m 0,0 km/h (0 Bft)
26.04.2014 20:50 15,3 C 12,8 C 76 % 1008,1 hPa 0,0 l/m 0 min 2 min 0,0 UV-I 0 W/m 0,0 km/h (0 Bft)
26.04.2014 20:52 15,3 C 12,8 C 77 % 1008,1 hPa 0,0 l/m 0 min 0 min 0,0 UV-I 0 W/m 0,0 km/h (0 Bft)
26.04.2014 20:54 15,3 C 12,8 C 78 % 1008,1 hPa 0,0 l/m 0 min 0 min 0,0 UV-I 0 W/m 0,0 km/h (0 Bft)
26.04.2014 20:56 15,2 C 12,8 C 79 % 1008,1 hPa 0,0 l/m 0 min 0 min 0,0 UV-I 0 W/m 0,0 km/h (0 Bft)
26.04.2014 20:58 15,2 C 12,8 C 78 % 1008,2 hPa 0,0 l/m 0 min 0 min 0,0 UV-I 0 W/m 0,0 km/h (0 Bft)
26.04.2014 21:00 15,2 C 12,8 C 79 % 1008,2 hPa 0,0 l/m 0 min 0 min 0,0 UV-I 0 W/m 0,0 km/h (0 Bft)
26.04.2014 21:02 15,1 C 12,8 C 80 % 1008,2 hPa 0,0 l/m 0 min 0 min 0,0 UV-I 0 W/m 0,0 km/h (0 Bft)
26.04.2014 21:06 15,0 C 12,8 C 81 % 1008,2 hPa 0,0 l/m 0 min 2 min 0,0 UV-I 0 W/m 0,0 km/h (0 Bft)
26.04.2014 21:08 14,9 C 12,8 C 82 % 1008,2 hPa 0,0 l/m 0 min 2 min 0,0 UV-I 0 W/m 0,0 km/h (0 Bft)
26.04.2014 21:10 14,8 C 12,8 C 82 % 1008,3 hPa 0,0 l/m 0 min 2 min 0,0 UV-I 0 W/m 0,0 km/h (0 Bft)
26.04.2014 21:12 14,7 C 12,2 C 82 % 1008,3 hPa 0,0 l/m 0 min 2 min 0,0 UV-I 0 W/m 0,0 km/h (0 Bft)
26.04.2014 21:14 14,7 C 12,2 C 82 % 1008,3 hPa 0,2 l/m 0 min 2 min 0,0 UV-I 0 W/m 0,0 km/h (0 Bft)
26.04.2014 21:16 14,7 C 12,2 C 84 % 1008,3 hPa 0,0 l/m 0 min 2 min 0,0 UV-I 0 W/m 0,0 km/h (0 Bft)
26.04.2014 21:18 14,6 C 12,2 C 84 % 1008,3 hPa 0,0 l/m 0 min 2 min 0,0 UV-I 0 W/m 0,0 km/h (0 Bft)
26.04.2014 21:20 14,5 C 11,7 C 85 % 1008,3 hPa 0,0 l/m 0 min 2 min 0,0 UV-I 0 W/m 0,0 km/h (0 Bft)
26.04.2014 21:22 14,4 C 11,7 C 86 % 1008,3 hPa 0,0 l/m 0 min 2 min 0,0 UV-I 0 W/m 0,0 km/h (0 Bft)
26.04.2014 21:24 14,3 C 12,2 C 87 % 1008,3 hPa 0,0 l/m 0 min 2 min 0,0 UV-I 0 W/m 0,0 km/h (0 Bft)
26.04.2014 21:26 14,2 C 12,2 C 88 % 1008,3 hPa 0,0 l/m 0 min 2 min 0,0 UV-I 0 W/m 0,0 km/h (0 Bft)
26.04.2014 21:28 14,2 C 11,7 C 88 % 1008,3 hPa 0,2 l/m 0 min 2 min 0,0 UV-I 0 W/m 0,0 km/h (0 Bft)
26.04.2014 21:30 14,1 C 11,7 C 88 % 1008,3 hPa 0,0 l/m 0 min 2 min 0,0 UV-I 0 W/m 0,0 km/h (0 Bft)
26.04.2014 21:32 14,0 C 11,7 C 89 % 1008,3 hPa 0,0 l/m 0 min 2 min 0,0 UV-I 0 W/m 0,0 km/h (0 Bft)
26.04.2014 21:34 13,9 C 11,7 C 89 % 1008,2 hPa 0,0 l/m 0 min 2 min 0,0 UV-I 0 W/m 0,0 km/h (0 Bft)
26.04.2014 21:36 13,9 C 11,7 C 89 % 1008,2 hPa 0,0 l/m 0 min 2 min 0,0 UV-I 0 W/m 0,0 km/h (0 Bft)
26.04.2014 21:38 13,8 C 11,7 C 89 % 1008,3 hPa 0,0 l/m 0 min 2 min 0,0 UV-I 0 W/m 0,0 km/h (0 Bft)
26.04.2014 21:40 13,7 C 11,7 C 89 % 1008,3 hPa 0,0 l/m 0 min 2 min 0,0 UV-I 0 W/m 0,0 km/h (0 Bft)
26.04.2014 21:42 13,7 C 11,7 C 89 % 1008,3 hPa 0,0 l/m 0 min 2 min 0,0 UV-I 0 W/m 0,0 km/h (0 Bft)
26.04.2014 21:44 13,7 C 11,7 C 89 % 1008,3 hPa 0,2 l/m 0 min 2 min 0,0 UV-I 0 W/m 0,0 km/h (0 Bft)
26.04.2014 21:46 13,6 C 11,7 C 90 % 1008,3 hPa 0,0 l/m 0 min 2 min 0,0 UV-I 0 W/m 0,0 km/h (0 Bft)
26.04.2014 21:48 13,6 C 11,7 C 90 % 1008,2 hPa 0,0 l/m 0 min 2 min 0,0 UV-I 0 W/m 0,0 km/h (0 Bft)
26.04.2014 21:50 13,4 C 11,7 C 90 % 1008,2 hPa 0,0 l/m 0 min 2 min 0,0 UV-I 0 W/m 0,0 km/h (0 Bft)
26.04.2014 21:52 13,4 C 11,7 C 90 % 1008,2 hPa 0,0 l/m 0 min 2 min 0,0 UV-I 0 W/m 0,0 km/h (0 Bft)
26.04.2014 21:54 13,3 C 11,7 C 91 % 1008,3 hPa 0,0 l/m 0 min 2 min 0,0 UV-I 0 W/m 0,0 km/h (0 Bft)
26.04.2014 21:56 13,3 C 11,7 C 91 % 1008,3 hPa 0,2 l/m 0 min 2 min 0,0 UV-I 0 W/m 0,0 km/h (0 Bft)
26.04.2014 21:58 13,3 C 11,7 C 91 % 1008,3 hPa 0,0 l/m 0 min 2 min 0,0 UV-I 0 W/m 0,0 km/h (0 Bft)
26.04.2014 22:00 13,3 C 11,7 C 92 % 1008,3 hPa 0,0 l/m 0 min 2 min 0,0 UV-I 0 W/m 0,0 km/h (0 Bft)
26.04.2014 22:02 13,4 C 11,7 C 92 % 1008,3 hPa 0,0 l/m 0 min 0 min 0,0 UV-I 0 W/m 0,0 km/h (0 Bft)
26.04.2014 22:06 13,4 C 11,7 C 92 % 1008,3 hPa 0,0 l/m 0 min 2 min 0,0 UV-I 0 W/m 0,0 km/h (0 Bft)
26.04.2014 22:08 13,3 C 11,7 C 92 % 1008,3 hPa 0,0 l/m 0 min 2 min 0,0 UV-I 0 W/m 0,0 km/h (0 Bft)
26.04.2014 22:10 13,3 C 11,7 C 92 % 1008,3 hPa 0,0 l/m 0 min 2 min 0,0 UV-I 0 W/m 0,0 km/h (0 Bft)
26.04.2014 22:12 13,3 C 11,7 C 92 % 1008,3 hPa 0,0 l/m 0 min 2 min 0,0 UV-I 0 W/m 0,0 km/h (0 Bft)
26.04.2014 22:14 13,3 C 11,7 C 92 % 1008,2 hPa 0,0 l/m 0 min 2 min 0,0 UV-I 0 W/m 0,0 km/h (0 Bft)
26.04.2014 22:16 13,3 C 11,7 C 92 % 1008,2 hPa 0,0 l/m 0 min 0 min 0,0 UV-I 0 W/m 0,0 km/h (0 Bft)
26.04.2014 22:18 13,3 C 11,7 C 92 % 1008,2 hPa 0,0 l/m 0 min 2 min 0,0 UV-I 0 W/m 0,0 km/h (0 Bft)
26.04.2014 22:20 13,3 C 11,7 C 92 % 1008,2 hPa 0,0 l/m 0 min 0 min 0,0 UV-I 0 W/m 0,0 km/h (0 Bft)
26.04.2014 22:22 13,3 C 11,7 C 92 % 1008,2 hPa 0,0 l/m 0 min 0 min 0,0 UV-I 0 W/m 0,0 km/h (0 Bft)
26.04.2014 22:24 13,3 C 11,7 C 93 % 1008,2 hPa 0,0 l/m 0 min 0 min 0,0 UV-I 0 W/m 0,0 km/h (0 Bft)
26.04.2014 22:26 13,3 C 11,7 C 93 % 1008,1 hPa 0,0 l/m 0 min 0 min 0,0 UV-I 0 W/m 0,0 km/h (0 Bft)
26.04.2014 22:28 13,3 C 11,7 C 93 % 1008,2 hPa 0,0 l/m 0 min 0 min 0,0 UV-I 0 W/m 0,0 km/h (0 Bft)
26.04.2014 22:30 13,3 C 11,7 C 93 % 1008,2 hPa 0,0 l/m 0 min 0 min 0,0 UV-I 0 W/m 0,0 km/h (0 Bft)
26.04.2014 22:32 13,3 C 11,7 C 93 % 1008,2 hPa 0,0 l/m 0 min 0 min 0,0 UV-I 0 W/m 0,0 km/h (0 Bft)
26.04.2014 22:34 13,3 C 11,7 C 93 % 1008,2 hPa 0,0 l/m 0 min 0 min 0,0 UV-I 0 W/m 0,0 km/h (0 Bft)
26.04.2014 22:36 13,4 C 11,7 C 93 % 1008,2 hPa 0,0 l/m 0 min 0 min 0,0 UV-I 0 W/m 0,0 km/h (0 Bft)
26.04.2014 22:38 13,3 C 11,7 C 93 % 1008,1 hPa 0,0 l/m 0 min 0 min 0,0 UV-I 0 W/m 0,0 km/h (0 Bft)
26.04.2014 22:40 13,4 C 11,7 C 93 % 1008,0 hPa 0,0 l/m 0 min 0 min 0,0 UV-I 0 W/m 0,0 km/h (0 Bft)
26.04.2014 22:42 13,4 C 11,7 C 93 % 1008,0 hPa 0,0 l/m 0 min 0 min 0,0 UV-I 0 W/m 0,0 km/h (0 Bft)
26.04.2014 22:44 13,3 C 11,7 C 93 % 1008,0 hPa 0,0 l/m 0 min 0 min 0,0 UV-I 0 W/m 0,0 km/h (0 Bft)
26.04.2014 22:46 13,3 C 11,7 C 93 % 1008,0 hPa 0,0 l/m 0 min 0 min 0,0 UV-I 0 W/m 0,0 km/h (0 Bft)
26.04.2014 22:48 13,3 C 11,7 C 93 % 1007,9 hPa 0,0 l/m 0 min 0 min 0,0 UV-I 0 W/m 0,0 km/h (0 Bft)
26.04.2014 22:50 13,3 C 11,7 C 93 % 1007,9 hPa 0,0 l/m 0 min 0 min 0,0 UV-I 0 W/m 0,0 km/h (0 Bft)
26.04.2014 22:52 13,3 C 11,7 C 93 % 1007,9 hPa 0,0 l/m 0 min 0 min 0,0 UV-I 0 W/m 0,0 km/h (0 Bft)
26.04.2014 22:54 13,2 C 11,7 C 93 % 1007,8 hPa 0,0 l/m 0 min 0 min 0,0 UV-I 0 W/m 0,0 km/h (0 Bft)
26.04.2014 22:56 13,3 C 11,7 C 93 % 1007,8 hPa 0,0 l/m 0 min 0 min 0,0 UV-I 0 W/m 0,0 km/h (0 Bft)
26.04.2014 22:58 13,3 C 11,7 C 93 % 1007,8 hPa 0,0 l/m 0 min 0 min 0,0 UV-I 0 W/m 0,0 km/h (0 Bft)
26.04.2014 23:00 13,3 C 11,7 C 93 % 1007,8 hPa 0,0 l/m 0 min 0 min 0,0 UV-I 0 W/m 0,0 km/h (0 Bft)
26.04.2014 23:02 13,3 C 11,7 C 93 % 1007,8 hPa 0,0 l/m 0 min 0 min 0,0 UV-I 0 W/m 0,0 km/h (0 Bft)
26.04.2014 23:06 13,4 C 11,7 C 93 % 1007,7 hPa 0,0 l/m 0 min 2 min 0,0 UV-I 0 W/m 0,0 km/h (0 Bft)
26.04.2014 23:08 13,4 C 11,7 C 93 % 1007,7 hPa 0,0 l/m 0 min 0 min 0,0 UV-I 0 W/m 0,0 km/h (0 Bft)
26.04.2014 23:10 13,5 C 11,7 C 94 % 1007,7 hPa 0,0 l/m 0 min 0 min 0,0 UV-I 0 W/m 0,0 km/h (0 Bft)
26.04.2014 23:12 13,6 C 11,7 C 93 % 1007,7 hPa 0,0 l/m 0 min 0 min 0,0 UV-I 0 W/m 0,0 km/h (0 Bft)
26.04.2014 23:14 13,6 C 11,7 C 93 % 1007,6 hPa 0,0 l/m 0 min 2 min 0,0 UV-I 0 W/m 0,0 km/h (0 Bft)
26.04.2014 23:16 13,5 C 11,7 C 93 % 1007,6 hPa 0,0 l/m 0 min 2 min 0,0 UV-I 0 W/m 0,0 km/h (0 Bft)
26.04.2014 23:18 13,5 C 11,7 C 93 % 1007,6 hPa 0,0 l/m 0 min 2 min 0,0 UV-I 0 W/m 0,0 km/h (0 Bft)
26.04.2014 23:20 13,5 C 11,7 C 93 % 1007,6 hPa 0,0 l/m 0 min 2 min 0,0 UV-I 0 W/m 0,0 km/h (0 Bft)
26.04.2014 23:22 13,4 C 11,7 C 93 % 1007,6 hPa 0,0 l/m 0 min 2 min 0,0 UV-I 0 W/m 0,0 km/h (0 Bft)
26.04.2014 23:24 13,4 C 11,7 C 93 % 1007,6 hPa 0,0 l/m 0 min 2 min 0,0 UV-I 0 W/m 0,0 km/h (0 Bft)
26.04.2014 23:26 13,4 C 11,7 C 93 % 1007,6 hPa 0,0 l/m 0 min 2 min 0,0 UV-I 0 W/m 0,0 km/h (0 Bft)
26.04.2014 23:28 13,3 C 11,7 C 93 % 1007,6 hPa 0,0 l/m 0 min 2 min 0,0 UV-I 0 W/m 0,0 km/h (0 Bft)
26.04.2014 23:30 13,3 C 11,7 C 94 % 1007,6 hPa 0,2 l/m 0 min 2 min 0,0 UV-I 0 W/m 0,0 km/h (0 Bft)
26.04.2014 23:32 13,3 C 11,7 C 94 % 1007,6 hPa 0,0 l/m 0 min 2 min 0,0 UV-I 0 W/m 0,0 km/h (0 Bft)
26.04.2014 23:34 13,2 C 11,7 C 94 % 1007,6 hPa 0,0 l/m 0 min 2 min 0,0 UV-I 0 W/m 0,0 km/h (0 Bft)
26.04.2014 23:36 13,2 C 11,7 C 94 % 1007,5 hPa 0,0 l/m 0 min 2 min 0,0 UV-I 0 W/m 0,0 km/h (0 Bft)
26.04.2014 23:38 13,2 C 11,7 C 94 % 1007,5 hPa 0,2 l/m 0 min 2 min 0,0 UV-I 0 W/m 0,0 km/h (0 Bft)
26.04.2014 23:40 13,1 C 11,7 C 94 % 1007,6 hPa 0,0 l/m 0 min 2 min 0,0 UV-I 0 W/m 0,0 km/h (0 Bft)
26.04.2014 23:42 13,1 C 11,7 C 94 % 1007,5 hPa 0,0 l/m 0 min 2 min 0,0 UV-I 0 W/m 0,0 km/h (0 Bft)
26.04.2014 23:44 13,1 C 11,7 C 95 % 1007,5 hPa 0,0 l/m 0 min 2 min 0,0 UV-I 0 W/m 0,0 km/h (0 Bft)
26.04.2014 23:46 13,1 C 11,7 C 95 % 1007,6 hPa 0,0 l/m 0 min 2 min 0,0 UV-I 0 W/m 0,0 km/h (0 Bft)
26.04.2014 23:48 13,0 C 11,7 C 95 % 1007,6 hPa 0,0 l/m 0 min 2 min 0,0 UV-I 0 W/m 0,0 km/h (0 Bft)
26.04.2014 23:50 12,9 C 11,7 C 95 % 1007,5 hPa 0,0 l/m 0 min 2 min 0,0 UV-I 0 W/m 0,0 km/h (0 Bft)
26.04.2014 23:52 12,9 C 11,7 C 95 % 1007,5 hPa 0,2 l/m 0 min 2 min 0,0 UV-I 0 W/m 0,0 km/h (0 Bft)
26.04.2014 23:54 12,9 C 11,7 C 95 % 1007,5 hPa 0,0 l/m 0 min 2 min 0,0 UV-I 0 W/m 0,0 km/h (0 Bft)
26.04.2014 23:56 12,9 C 11,7 C 95 % 1007,5 hPa 0,0 l/m 0 min 2 min 0,0 UV-I 0 W/m 0,0 km/h (0 Bft)
26.04.2014 23:58 12,9 C 11,7 C 95 % 1007,4 hPa 0,0 l/m 0 min 2 min 0,0 UV-I 0 W/m 0,0 km/h (0 Bft)
_ Min-Zeit 06:42 06:08 14:42 23:58 - - - - - 00:02
Minimum _ 10,4 C 8,9 C 58 % 1007,4 hPa - - - - - 0,0 km/h (0 Bft)
_ Max-Zeit 14:36 14:32 07:06 01:44 21:14 08:18 19:24 14:28 14:28 13:42
Maximum _ 20,3 C 21,1 C 95 % 1012,8 hPa 0,2 l/m 2 min 2 min 3,5 UV-I 1005 W/m 20,6 km/h
S-SO (4 Bft)
Durchschnitt _ 14,7 C 13,7 C 80 % 1010,6 hPa #1,4 l/m #4:45 h #2:28 h 1,5 UV-I 269 W/m 2,2 km/h (1 Bft)
© 2014 W. Hausmann